Time,TemperatureF,DewpointF,PressureIn,WindDirection,WindDirectionDegrees,WindSpeedMPH,WindSpeedGustMPH,Humidity,HourlyPrecipIn,Conditions,Clouds,dailyrainin,SolarRadiationWatts/m^2,SoftwareType,DateUTC
2013-01-25 00:00:00,20.1,9.7,30.20,ENE,63,1.1,1.1,63,0.00,,,0.00,0,TxWx,2013-01-25 05:00:00,
2013-01-25 00:02:00,20.1,9.4,30.20,East,79,1.1,1.1,62,0.00,,,0.00,0,TxWx,2013-01-25 05:02:00,
2013-01-25 00:05:00,20.2,9.5,30.20,ENE,73,1.1,1.1,62,0.00,,,0.00,0,TxWx,2013-01-25 05:05:00,
2013-01-25 00:07:00,20.2,9.7,30.20,ENE,69,0.7,0.0,63,0.00,,,0.00,0,TxWx,2013-01-25 05:07:00,
2013-01-25 00:10:00,20.2,9.4,30.20,ENE,63,0.7,0.0,62,0.00,,,0.00,0,TxWx,2013-01-25 05:10:00,
2013-01-25 00:11:00,20.2,9.4,30.20,ENE,63,0.7,0.0,62,0.00,,,0.00,0,TxWx,2013-01-25 05:11:00,
2013-01-25 00:12:00,20.1,9.4,30.20,ENE,72,1.5,1.5,62,0.00,,,0.00,0,TxWx,2013-01-25 05:12:00,
2013-01-25 00:15:00,20.1,9.6,30.20,ENE,78,0.7,0.0,63,0.00,,,0.00,0,TxWx,2013-01-25 05:15:00,
2013-01-25 00:16:00,20.1,9.6,30.20,ENE,74,0.7,1.0,63,0.00,,,0.00,0,TxWx,2013-01-25 05:16:00,
2013-01-25 00:17:00,20.1,9.6,30.20,East,80,0.3,0.0,63,0.00,,,0.00,0,TxWx,2013-01-25 05:17:00,
2013-01-25 00:20:00,20.0,9.6,30.20,ENE,73,0.7,1.0,63,0.00,,,0.00,0,TxWx,2013-01-25 05:20:00,
2013-01-25 00:21:00,20.0,9.6,30.20,ENE,72,0.7,1.0,63,0.00,,,0.00,0,TxWx,2013-01-25 05:21:00,
2013-01-25 00:22:00,19.9,9.5,30.20,ENE,69,0.7,0.0,63,0.00,,,0.00,0,TxWx,2013-01-25 05:22:00,
2013-01-25 00:26:00,19.8,9.7,30.20,ENE,77,0.7,1.0,64,0.00,,,0.00,0,TxWx,2013-01-25 05:26:00,
2013-01-25 00:27:00,19.7,9.6,30.20,East,86,0.0,0.0,64,0.00,,,0.00,0,TxWx,2013-01-25 05:27:00,
2013-01-25 00:31:00,19.6,9.5,30.20,ENE,67,0.3,0.0,64,0.00,,,0.00,0,TxWx,2013-01-25 05:31:00,
2013-01-25 00:33:00,19.6,9.5,30.20,ENE,70,1.1,1.1,64,0.00,,,0.00,0,TxWx,2013-01-25 05:33:00,
2013-01-25 00:36:00,19.4,9.7,30.19,ENE,69,0.3,0.0,65,0.00,,,0.00,0,TxWx,2013-01-25 05:36:00,
2013-01-25 00:38:00,19.4,9.6,30.19,East,79,0.3,0.0,65,0.00,,,0.00,0,TxWx,2013-01-25 05:38:00,
2013-01-25 00:41:00,19.4,9.2,30.19,East,83,0.7,0.0,63,0.00,,,0.00,0,TxWx,2013-01-25 05:41:00,
2013-01-25 00:42:00,19.4,9.3,30.19,East,85,0.3,0.0,64,0.00,,,0.00,0,TxWx,2013-01-25 05:42:00,
2013-01-25 00:43:00,19.4,9.3,30.19,East,82,0.7,0.0,64,0.00,,,0.00,0,TxWx,2013-01-25 05:43:00,
2013-01-25 00:46:00,19.3,9.3,30.19,ENE,69,0.7,1.0,64,0.00,,,0.00,0,TxWx,2013-01-25 05:46:00,
2013-01-25 00:47:00,19.3,9.3,30.19,ENE,66,1.1,1.1,64,0.00,,,0.00,0,TxWx,2013-01-25 05:47:00,
2013-01-25 00:48:00,19.3,9.3,30.19,ENE,63,0.7,1.0,64,0.00,,,0.00,0,TxWx,2013-01-25 05:48:00,
2013-01-25 00:51:00,19.3,9.3,30.20,NE,55,0.0,0.0,64,0.00,,,0.00,0,TxWx,2013-01-25 05:51:00,
2013-01-25 00:52:00,19.3,9.3,30.20,ENE,69,0.7,0.0,64,0.00,,,0.00,0,TxWx,2013-01-25 05:52:00,
2013-01-25 00:53:00,19.3,9.5,30.20,East,79,0.7,1.0,65,0.00,,,0.00,0,TxWx,2013-01-25 05:53:00,
2013-01-25 00:56:00,19.2,9.2,30.20,East,85,0.7,1.0,64,0.00,,,0.00,0,TxWx,2013-01-25 05:56:00,
2013-01-25 00:57:00,19.2,9.2,30.20,East,86,0.7,1.0,64,0.00,,,0.00,0,TxWx,2013-01-25 05:57:00,
2013-01-25 00:58:00,19.2,9.1,30.20,East,79,0.7,0.0,64,0.00,,,0.00,0,TxWx,2013-01-25 05:58:00,
2013-01-25 01:02:00,19.2,9.1,30.20,ENE,69,1.1,0.0,64,0.00,,,0.00,0,TxWx,2013-01-25 06:02:00,
2013-01-25 01:04:00,19.2,9.4,30.20,ENE,78,1.1,1.1,64,0.00,,,0.00,0,TxWx,2013-01-25 06:04:00,
2013-01-25 01:07:00,19.2,9.1,30.20,ENE,77,1.1,1.1,63,0.00,,,0.00,0,TxWx,2013-01-25 06:07:00,
2013-01-25 01:09:00,19.2,8.9,30.20,ENE,77,1.1,1.1,63,0.00,,,0.00,0,TxWx,2013-01-25 06:09:00,
2013-01-25 01:12:00,19.3,9.3,30.20,ENE,69,1.1,1.1,64,0.00,,,0.00,0,TxWx,2013-01-25 06:12:00,
2013-01-25 01:13:00,19.2,9.2,30.20,ENE,64,0.7,1.0,64,0.00,,,0.00,0,TxWx,2013-01-25 06:13:00,
2013-01-25 01:14:00,19.2,8.8,30.20,ENE,72,1.5,1.5,63,0.00,,,0.00,0,TxWx,2013-01-25 06:14:00,
2013-01-25 01:17:00,19.2,9.1,30.20,East,85,0.7,1.0,64,0.00,,,0.00,0,TxWx,2013-01-25 06:17:00,
2013-01-25 01:18:00,19.2,9.1,30.21,East,83,1.5,1.5,64,0.00,,,0.00,0,TxWx,2013-01-25 06:18:00,
2013-01-25 01:19:00,19.2,8.7,30.21,East,89,0.7,0.0,63,0.00,,,0.00,0,TxWx,2013-01-25 06:19:00,
2013-01-25 01:22:00,19.2,9.2,30.21,ENE,78,1.5,1.5,64,0.00,,,0.00,0,TxWx,2013-01-25 06:22:00,
2013-01-25 01:23:00,19.2,9.0,30.21,ENE,73,1.5,1.5,63,0.00,,,0.00,0,TxWx,2013-01-25 06:23:00,
2013-01-25 01:24:00,19.3,8.8,30.21,ENE,70,0.7,1.0,63,0.00,,,0.00,0,TxWx,2013-01-25 06:24:00,
2013-01-25 01:27:00,19.3,8.9,30.21,East,81,1.1,1.1,63,0.00,,,0.00,0,TxWx,2013-01-25 06:27:00,
2013-01-25 01:28:00,19.3,9.0,30.21,East,83,0.7,1.0,63,0.00,,,0.00,0,TxWx,2013-01-25 06:28:00,
2013-01-25 01:30:00,19.2,8.8,30.21,ENE,70,1.5,1.5,63,0.00,,,0.00,0,TxWx,2013-01-25 06:30:00,
2013-01-25 01:32:00,19.2,9.2,30.21,ENE,70,1.1,1.1,64,0.00,,,0.00,0,TxWx,2013-01-25 06:32:00,
2013-01-25 01:33:00,19.2,9.2,30.21,ENE,65,0.7,0.0,64,0.00,,,0.00,0,TxWx,2013-01-25 06:33:00,
2013-01-25 01:35:00,19.1,9.4,30.20,ENE,73,0.7,0.0,65,0.00,,,0.00,0,TxWx,2013-01-25 06:35:00,
2013-01-25 01:37:00,19.0,9.4,30.20,ENE,72,0.7,1.0,65,0.00,,,0.00,0,TxWx,2013-01-25 06:37:00,
2013-01-25 01:38:00,19.0,9.4,30.20,ENE,74,0.7,0.0,65,0.00,,,0.00,0,TxWx,2013-01-25 06:38:00,
2013-01-25 01:40:00,18.9,9.7,30.20,ENE,73,0.7,0.0,66,0.00,,,0.00,0,TxWx,2013-01-25 06:40:00,
2013-01-25 01:42:00,18.8,9.3,30.20,ENE,75,0.7,0.0,65,0.00,,,0.00,0,TxWx,2013-01-25 06:42:00,
2013-01-25 01:43:00,18.8,9.3,30.20,ENE,72,0.7,0.0,65,0.00,,,0.00,0,TxWx,2013-01-25 06:43:00,
2013-01-25 01:46:00,18.6,9.7,30.20,ENE,58,0.7,1.0,67,0.00,,,0.00,0,TxWx,2013-01-25 06:46:00,
2013-01-25 01:47:00,18.5,9.7,30.20,East,84,0.3,0.0,67,0.00,,,0.00,0,TxWx,2013-01-25 06:47:00,
2013-01-25 01:48:00,18.5,9.7,30.20,ENE,78,0.3,0.0,67,0.00,,,0.00,0,TxWx,2013-01-25 06:48:00,
2013-01-25 01:51:00,18.4,9.4,30.20,ENE,68,0.7,0.0,67,0.00,,,0.00,0,TxWx,2013-01-25 06:51:00,
2013-01-25 01:53:00,18.3,9.4,30.20,ENE,62,0.3,0.0,67,0.00,,,0.00,0,TxWx,2013-01-25 06:53:00,
2013-01-25 01:56:00,18.2,9.3,30.20,ENE,71,0.0,0.0,67,0.00,,,0.00,0,TxWx,2013-01-25 06:56:00,
2013-01-25 01:58:00,18.2,9.6,30.20,ENE,75,0.3,0.0,68,0.00,,,0.00,0,TxWx,2013-01-25 06:58:00,
2013-01-25 02:01:00,18.1,9.5,30.20,ENE,70,0.0,0.0,68,0.00,,,0.00,0,TxWx,2013-01-25 07:01:00,
2013-01-25 02:03:00,18.0,9.1,30.20,ENE,68,0.0,0.0,67,0.00,,,0.00,0,TxWx,2013-01-25 07:03:00,
2013-01-25 02:06:00,18.0,9.4,30.20,ENE,70,0.0,0.0,68,0.00,,,0.00,0,TxWx,2013-01-25 07:06:00,
2013-01-25 02:08:00,17.9,9.2,30.20,East,84,0.3,0.0,68,0.00,,,0.00,0,TxWx,2013-01-25 07:08:00,
2013-01-25 02:11:00,17.9,8.8,30.19,ENE,60,0.0,0.0,67,0.00,,,0.00,0,TxWx,2013-01-25 07:11:00,
2013-01-25 02:13:00,17.8,9.0,30.19,ENE,58,0.7,1.0,67,0.00,,,0.00,0,TxWx,2013-01-25 07:13:00,
2013-01-25 02:14:00,17.8,9.2,30.19,ENE,58,0.7,0.0,68,0.00,,,0.00,0,TxWx,2013-01-25 07:14:00,
2013-01-25 02:16:00,17.7,9.4,30.19,ENE,71,0.0,0.0,69,0.00,,,0.00,0,TxWx,2013-01-25 07:16:00,
2013-01-25 02:18:00,17.7,9.5,30.19,ENE,73,0.7,1.0,69,0.00,,,0.00,0,TxWx,2013-01-25 07:18:00,
2013-01-25 02:19:00,17.7,9.5,30.19,ENE,71,0.7,0.0,69,0.00,,,0.00,0,TxWx,2013-01-25 07:19:00,
2013-01-25 02:21:00,17.7,9.3,30.18,East,80,0.3,0.0,69,0.00,,,0.00,0,TxWx,2013-01-25 07:21:00,
2013-01-25 02:23:00,17.7,9.1,30.18,ENE,67,0.3,0.0,68,0.00,,,0.00,0,TxWx,2013-01-25 07:23:00,
2013-01-25 02:24:00,17.7,9.1,30.18,ENE,63,0.0,0.0,68,0.00,,,0.00,0,TxWx,2013-01-25 07:24:00,
2013-01-25 02:26:00,17.7,8.9,30.19,ENE,67,1.1,1.1,67,0.00,,,0.00,0,TxWx,2013-01-25 07:26:00,
2013-01-25 02:28:00,17.7,9.1,30.19,ENE,71,0.3,0.0,68,0.00,,,0.00,0,TxWx,2013-01-25 07:28:00,
2013-01-25 02:29:00,17.7,9.1,30.19,ENE,70,0.7,1.0,68,0.00,,,0.00,0,TxWx,2013-01-25 07:29:00,
2013-01-25 02:31:00,17.7,9.5,30.19,ENE,67,0.7,1.0,69,0.00,,,0.00,0,TxWx,2013-01-25 07:31:00,
2013-01-25 02:34:00,17.7,9.2,30.19,ENE,73,1.5,1.5,68,0.00,,,0.00,0,TxWx,2013-01-25 07:34:00,
2013-01-25 02:36:00,17.8,8.9,30.18,ENE,69,0.7,1.0,67,0.00,,,0.00,0,TxWx,2013-01-25 07:36:00,
2013-01-25 02:39:00,17.9,8.9,30.18,ENE,57,1.1,1.1,67,0.00,,,0.00,0,TxWx,2013-01-25 07:39:00,
2013-01-25 02:42:00,18.0,8.7,30.19,ENE,58,0.0,0.0,66,0.00,,,0.00,0,TxWx,2013-01-25 07:42:00,
2013-01-25 02:44:00,18.0,9.1,30.19,ENE,62,0.0,0.0,67,0.00,,,0.00,0,TxWx,2013-01-25 07:44:00,
2013-01-25 02:47:00,18.1,9.1,30.18,ENE,58,1.1,1.1,67,0.00,,,0.00,0,TxWx,2013-01-25 07:47:00,
2013-01-25 02:49:00,18.0,9.0,30.18,ENE,64,1.1,1.1,67,0.00,,,0.00,0,TxWx,2013-01-25 07:49:00,
2013-01-25 02:50:00,18.0,9.1,30.18,ENE,58,0.7,1.0,67,0.00,,,0.00,0,TxWx,2013-01-25 07:50:00,
2013-01-25 02:52:00,17.9,9.2,30.18,ENE,68,0.7,1.0,68,0.00,,,0.00,0,TxWx,2013-01-25 07:52:00,
2013-01-25 02:54:00,17.9,9.7,30.18,NE,55,0.7,1.0,69,0.00,,,0.00,0,TxWx,2013-01-25 07:54:00,
2013-01-25 02:55:00,17.9,9.7,30.18,NE,48,0.7,0.0,69,0.00,,,0.00,0,TxWx,2013-01-25 07:55:00,
2013-01-25 02:57:00,17.8,9.0,30.18,ENE,69,1.5,1.5,67,0.00,,,0.00,0,TxWx,2013-01-25 07:57:00,
2013-01-25 03:00:00,17.8,9.6,30.18,ENE,73,0.3,0.0,69,0.00,,,0.00,0,TxWx,2013-01-25 08:00:00,
2013-01-25 03:03:00,17.7,9.8,30.18,ENE,69,0.7,0.0,70,0.00,,,0.00,0,TxWx,2013-01-25 08:03:00,
2013-01-25 03:05:00,17.6,9.7,30.18,ENE,59,0.3,0.0,70,0.00,,,0.00,0,TxWx,2013-01-25 08:05:00,
2013-01-25 03:08:00,17.6,9.9,30.18,ENE,77,1.1,1.1,71,0.00,,,0.00,0,TxWx,2013-01-25 08:08:00,
2013-01-25 03:10:00,17.6,9.6,30.18,ENE,70,1.1,1.1,70,0.00,,,0.00,0,TxWx,2013-01-25 08:10:00,
2013-01-25 03:11:00,17.6,9.6,30.18,ENE,68,0.7,0.0,70,0.00,,,0.00,0,TxWx,2013-01-25 08:11:00,
2013-01-25 03:13:00,17.6,9.8,30.18,NE,54,1.1,1.1,71,0.00,,,0.00,0,TxWx,2013-01-25 08:13:00,
2013-01-25 03:15:00,17.6,9.0,30.18,ENE,63,0.7,1.0,68,0.00,,,0.00,0,TxWx,2013-01-25 08:15:00,
2013-01-25 03:16:00,17.6,9.0,30.18,ENE,65,1.5,1.5,68,0.00,,,0.00,0,TxWx,2013-01-25 08:16:00,
2013-01-25 03:18:00,17.6,8.8,30.18,ENE,63,0.3,0.0,67,0.00,,,0.00,0,TxWx,2013-01-25 08:18:00,
2013-01-25 03:20:00,17.6,8.8,30.18,NE,54,0.3,0.0,67,0.00,,,0.00,0,TxWx,2013-01-25 08:20:00,
2013-01-25 03:21:00,17.6,8.8,30.18,ENE,58,0.7,1.0,67,0.00,,,0.00,0,TxWx,2013-01-25 08:21:00,
2013-01-25 03:23:00,17.6,9.1,30.18,NE,56,0.7,0.0,68,0.00,,,0.00,0,TxWx,2013-01-25 08:23:00,
2013-01-25 03:26:00,17.7,8.9,30.18,NE,52,0.3,0.0,68,0.00,,,0.00,0,TxWx,2013-01-25 08:26:00,
2013-01-25 03:28:00,17.7,9.2,30.18,ENE,67,0.0,0.0,68,0.00,,,0.00,0,TxWx,2013-01-25 08:28:00,
2013-01-25 03:31:00,17.8,9.3,30.18,NE,56,0.7,0.0,68,0.00,,,0.00,0,TxWx,2013-01-25 08:31:00,
2013-01-25 03:32:00,17.9,9.4,30.18,NE,56,0.7,1.0,69,0.00,,,0.00,0,TxWx,2013-01-25 08:32:00,
2013-01-25 03:33:00,17.9,9.3,30.18,ENE,59,0.7,1.0,68,0.00,,,0.00,0,TxWx,2013-01-25 08:33:00,
2013-01-25 03:36:00,17.9,8.6,30.18,ENE,65,1.1,1.1,66,0.00,,,0.00,0,TxWx,2013-01-25 08:36:00,
2013-01-25 03:37:00,17.9,8.6,30.18,ENE,62,1.1,1.1,66,0.00,,,0.00,0,TxWx,2013-01-25 08:37:00,
2013-01-25 03:38:00,17.9,8.2,30.18,ENE,68,1.1,1.1,65,0.00,,,0.00,0,TxWx,2013-01-25 08:38:00,
2013-01-25 03:41:00,17.9,8.2,30.18,NE,54,1.1,1.1,64,0.00,,,0.00,0,TxWx,2013-01-25 08:41:00,
2013-01-25 03:42:00,18.0,8.3,30.18,ENE,61,1.1,1.1,65,0.00,,,0.00,0,TxWx,2013-01-25 08:42:00,
2013-01-25 03:43:00,18.0,8.1,30.18,ENE,64,1.5,1.5,64,0.00,,,0.00,0,TxWx,2013-01-25 08:43:00,
2013-01-25 03:46:00,18.0,8.2,30.18,ENE,68,1.1,1.1,64,0.00,,,0.00,0,TxWx,2013-01-25 08:46:00,
2013-01-25 03:47:00,18.0,8.2,30.18,ENE,59,1.1,1.1,64,0.00,,,0.00,0,TxWx,2013-01-25 08:47:00,
2013-01-25 03:48:00,18.0,7.8,30.18,ENE,65,1.1,1.1,63,0.00,,,0.00,0,TxWx,2013-01-25 08:48:00,
2013-01-25 03:51:00,18.1,8.4,30.18,NE,51,0.7,0.0,65,0.00,,,0.00,0,TxWx,2013-01-25 08:51:00,
2013-01-25 03:52:00,18.1,8.7,30.18,NE,41,0.3,0.0,66,0.00,,,0.00,0,TxWx,2013-01-25 08:52:00,
2013-01-25 03:53:00,18.2,9.0,30.17,ENE,60,0.7,1.0,66,0.00,,,0.00,0,TxWx,2013-01-25 08:53:00,
2013-01-25 03:56:00,18.2,8.0,30.17,ENE,65,1.1,1.1,63,0.00,,,0.00,0,TxWx,2013-01-25 08:56:00,
2013-01-25 03:57:00,18.2,8.1,30.17,ENE,64,1.1,1.1,63,0.00,,,0.00,0,TxWx,2013-01-25 08:57:00,
2013-01-25 03:58:00,18.2,7.9,30.17,ENE,62,0.7,1.0,63,0.00,,,0.00,0,TxWx,2013-01-25 08:58:00,
2013-01-25 04:01:00,18.1,7.6,30.17,ENE,63,0.3,0.0,63,0.00,,,0.00,0,TxWx,2013-01-25 09:01:00,
2013-01-25 04:02:00,18.1,7.6,30.17,NE,56,0.3,0.0,63,0.00,,,0.00,0,TxWx,2013-01-25 09:02:00,
2013-01-25 04:04:00,18.1,8.1,30.17,ENE,64,1.1,1.1,64,0.00,,,0.00,0,TxWx,2013-01-25 09:04:00,
2013-01-25 04:07:00,18.1,8.0,30.17,ENE,57,0.7,1.0,63,0.00,,,0.00,0,TxWx,2013-01-25 09:07:00,
2013-01-25 04:09:00,18.1,8.2,30.17,ENE,66,1.1,1.1,64,0.00,,,0.00,0,TxWx,2013-01-25 09:09:00,
2013-01-25 04:12:00,18.1,8.1,30.17,ENE,60,0.7,1.0,64,0.00,,,0.00,0,TxWx,2013-01-25 09:12:00,
2013-01-25 04:14:00,18.2,9.1,30.16,ENE,64,0.3,0.0,66,0.00,,,0.00,0,TxWx,2013-01-25 09:14:00,
2013-01-25 04:17:00,18.2,8.9,30.16,ENE,70,0.7,1.0,66,0.00,,,0.00,0,TxWx,2013-01-25 09:17:00,
2013-01-25 04:18:00,18.2,8.2,30.16,ENE,67,1.1,1.1,64,0.00,,,0.00,0,TxWx,2013-01-25 09:18:00,
2013-01-25 04:19:00,18.2,7.9,30.16,NE,53,0.7,1.0,63,0.00,,,0.00,0,TxWx,2013-01-25 09:19:00,
2013-01-25 04:22:00,18.1,7.7,30.16,ENE,60,1.1,1.1,62,0.00,,,0.00,0,TxWx,2013-01-25 09:22:00,
2013-01-25 04:23:00,18.1,7.7,30.16,NE,47,0.3,0.0,63,0.00,,,0.00,0,TxWx,2013-01-25 09:23:00,
2013-01-25 04:24:00,18.2,8.5,30.16,ENE,74,0.7,0.0,65,0.00,,,0.00,0,TxWx,2013-01-25 09:24:00,
2013-01-25 04:27:00,18.2,7.9,30.16,ENE,59,0.0,0.0,63,0.00,,,0.00,0,TxWx,2013-01-25 09:27:00,
2013-01-25 04:28:00,18.2,7.8,30.16,ENE,64,0.3,0.0,63,0.00,,,0.00,0,TxWx,2013-01-25 09:28:00,
2013-01-25 04:29:00,18.2,7.9,30.16,NE,55,0.7,1.0,63,0.00,,,0.00,0,TxWx,2013-01-25 09:29:00,
2013-01-25 04:32:00,18.2,7.8,30.16,ENE,67,0.7,0.0,63,0.00,,,0.00,0,TxWx,2013-01-25 09:32:00,
2013-01-25 04:33:00,18.2,8.0,30.16,ENE,72,0.7,1.0,63,0.00,,,0.00,0,TxWx,2013-01-25 09:33:00,
2013-01-25 04:34:00,18.3,8.0,30.16,ENE,66,0.3,0.0,63,0.00,,,0.00,0,TxWx,2013-01-25 09:34:00,
2013-01-25 04:37:00,18.3,8.4,30.15,NE,52,0.7,0.0,64,0.00,,,0.00,0,TxWx,2013-01-25 09:37:00,
2013-01-25 04:39:00,18.4,9.0,30.15,NE,45,0.0,0.0,66,0.00,,,0.00,0,TxWx,2013-01-25 09:39:00,
2013-01-25 04:43:00,18.4,8.6,30.15,NE,49,1.1,1.1,64,0.00,,,0.00,0,TxWx,2013-01-25 09:43:00,
2013-01-25 04:44:00,18.4,8.2,30.15,NE,53,0.3,0.0,63,0.00,,,0.00,0,TxWx,2013-01-25 09:44:00,
2013-01-25 04:45:00,18.4,8.3,30.15,ENE,58,0.0,0.0,64,0.00,,,0.00,0,TxWx,2013-01-25 09:45:00,
2013-01-25 04:48:00,18.5,8.5,30.15,ENE,58,0.7,1.0,64,0.00,,,0.00,0,TxWx,2013-01-25 09:48:00,
2013-01-25 04:49:00,18.5,8.6,30.15,ENE,59,0.7,1.0,64,0.00,,,0.00,0,TxWx,2013-01-25 09:49:00,
2013-01-25 04:50:00,18.5,8.3,30.15,NE,56,0.3,0.0,63,0.00,,,0.00,0,TxWx,2013-01-25 09:50:00,
2013-01-25 04:53:00,18.6,8.8,30.15,NE,55,0.7,0.0,65,0.00,,,0.00,0,TxWx,2013-01-25 09:53:00,
2013-01-25 04:54:00,18.6,8.7,30.15,NE,53,0.3,0.0,64,0.00,,,0.00,0,TxWx,2013-01-25 09:54:00,
2013-01-25 04:55:00,18.6,8.5,30.15,NE,47,0.0,0.0,64,0.00,,,0.00,0,TxWx,2013-01-25 09:55:00,
2013-01-25 04:58:00,18.8,9.5,30.15,NE,56,0.3,0.0,66,0.00,,,0.00,0,TxWx,2013-01-25 09:58:00,
2013-01-25 04:59:00,18.8,9.3,30.15,NNE,18,0.0,0.0,65,0.00,,,0.00,0,TxWx,2013-01-25 09:59:00,
2013-01-25 05:00:00,18.9,9.2,30.15,ENE,58,0.0,0.0,65,0.00,,,0.00,0,TxWx,2013-01-25 10:00:00,
2013-01-25 05:03:00,18.9,9.1,30.15,NE,54,0.3,1.0,65,0.00,,,0.00,0,TxWx,2013-01-25 10:03:00,
2013-01-25 05:04:00,18.9,9.1,30.15,ENE,57,0.7,0.0,65,0.00,,,0.00,0,TxWx,2013-01-25 10:04:00,
2013-01-25 05:05:00,18.9,9.2,30.15,NE,53,0.7,1.0,65,0.00,,,0.00,0,TxWx,2013-01-25 10:05:00,
2013-01-25 05:08:00,18.9,9.8,30.14,NE,55,0.0,0.0,66,0.00,,,0.00,0,TxWx,2013-01-25 10:08:00,
2013-01-25 05:09:00,18.9,9.8,30.14,NE,36,0.0,0.0,66,0.00,,,0.00,0,TxWx,2013-01-25 10:09:00,
2013-01-25 05:10:00,18.9,9.9,30.14,NNE,23,0.0,0.0,67,0.00,,,0.00,0,TxWx,2013-01-25 10:10:00,
2013-01-25 05:13:00,18.9,9.5,30.14,NE,48,0.3,0.0,66,0.00,,,0.00,0,TxWx,2013-01-25 10:13:00,
2013-01-25 05:14:00,18.9,9.5,30.14,North,6,0.0,0.0,66,0.00,,,0.00,0,TxWx,2013-01-25 10:14:00,
2013-01-25 05:16:00,18.8,9.4,30.14,NNE,25,0.0,0.0,66,0.00,,,0.00,0,TxWx,2013-01-25 10:16:00,
2013-01-25 05:18:00,18.9,9.6,30.14,North,356,0.0,0.0,66,0.00,,,0.00,0,TxWx,2013-01-25 10:18:00,
2013-01-25 05:19:00,18.9,9.7,30.14,North,358,0.0,0.0,66,0.00,,,0.00,0,TxWx,2013-01-25 10:19:00,
2013-01-25 05:21:00,19.0,9.3,30.14,ENE,59,0.0,0.0,65,0.00,,,0.00,0,TxWx,2013-01-25 10:21:00,
2013-01-25 05:24:00,19.1,9.5,30.14,NE,54,0.3,0.0,65,0.00,,,0.00,0,TxWx,2013-01-25 10:24:00,
2013-01-25 05:26:00,19.2,10.0,30.14,NE,35,0.7,0.0,66,0.00,,,0.00,0,TxWx,2013-01-25 10:26:00,
2013-01-25 05:29:00,19.3,10.5,30.14,NE,53,0.7,0.0,67,0.00,,,0.00,0,TxWx,2013-01-25 10:29:00,
2013-01-25 05:30:00,19.4,9.8,30.14,NE,52,0.0,0.0,65,0.00,,,0.00,0,TxWx,2013-01-25 10:30:00,
2013-01-25 05:31:00,19.5,9.7,30.14,ENE,61,0.7,0.0,65,0.00,,,0.00,0,TxWx,2013-01-25 10:31:00,
2013-01-25 05:34:00,19.6,8.8,30.14,ENE,71,1.9,1.9,62,0.00,,,0.00,0,TxWx,2013-01-25 10:34:00,
2013-01-25 05:35:00,19.6,8.8,30.14,NE,56,1.1,1.1,62,0.00,,,0.00,0,TxWx,2013-01-25 10:35:00,
2013-01-25 05:37:00,19.7,8.9,30.13,ENE,57,1.1,1.1,62,0.00,,,0.00,0,TxWx,2013-01-25 10:37:00,
2013-01-25 05:39:00,19.7,8.8,30.13,NE,54,0.3,0.0,61,0.00,,,0.00,0,TxWx,2013-01-25 10:39:00,
2013-01-25 05:40:00,19.7,8.8,30.13,NE,53,0.7,0.0,61,0.00,,,0.00,0,TxWx,2013-01-25 10:40:00,
2013-01-25 05:42:00,19.5,8.6,30.13,ENE,62,1.1,1.1,62,0.00,,,0.00,0,TxWx,2013-01-25 10:42:00,
2013-01-25 05:44:00,19.4,9.0,30.13,ENE,61,1.1,1.1,63,0.00,,,0.00,0,TxWx,2013-01-25 10:44:00,
2013-01-25 05:45:00,19.4,9.0,30.13,ENE,65,1.1,1.1,63,0.00,,,0.00,0,TxWx,2013-01-25 10:45:00,
2013-01-25 05:47:00,19.5,9.5,30.13,ENE,57,0.7,0.0,64,0.00,,,0.00,0,TxWx,2013-01-25 10:47:00,
2013-01-25 05:50:00,19.6,9.7,30.13,NE,51,0.7,0.0,64,0.00,,,0.00,0,TxWx,2013-01-25 10:50:00,
2013-01-25 05:52:00,19.7,10.7,30.13,NE,55,1.1,1.1,67,0.00,,,0.00,0,TxWx,2013-01-25 10:52:00,
2013-01-25 05:55:00,19.7,10.4,30.13,ENE,61,1.1,1.1,66,0.00,,,0.00,0,TxWx,2013-01-25 10:55:00,
2013-01-25 05:58:00,19.7,10.5,30.13,ENE,61,1.1,1.1,66,0.00,,,0.00,0,TxWx,2013-01-25 10:58:00,
2013-01-25 06:00:00,19.8,11.1,30.13,ENE,58,0.7,0.0,68,0.00,,,0.00,0,TxWx,2013-01-25 11:00:00,
2013-01-25 06:01:00,19.8,11.0,30.13,ENE,58,0.7,1.0,68,0.00,,,0.00,0,TxWx,2013-01-25 11:01:00,
2013-01-25 06:03:00,19.8,10.4,30.13,ENE,71,1.5,1.5,66,0.00,,,0.00,0,TxWx,2013-01-25 11:03:00,
2013-01-25 06:05:00,19.8,9.6,30.13,ENE,62,0.7,0.0,64,0.00,,,0.00,0,TxWx,2013-01-25 11:05:00,
2013-01-25 06:06:00,19.8,9.3,30.13,ENE,67,0.7,0.0,63,0.00,,,0.00,0,TxWx,2013-01-25 11:06:00,
2013-01-25 06:08:00,19.9,9.8,30.13,NE,56,0.7,0.0,64,0.00,,,0.00,0,TxWx,2013-01-25 11:08:00,
2013-01-25 06:10:00,19.9,9.9,30.13,NE,56,0.3,0.0,64,0.00,,,0.00,0,TxWx,2013-01-25 11:10:00,
2013-01-25 06:11:00,19.9,10.0,30.13,ENE,59,1.9,1.9,64,0.00,,,0.00,0,TxWx,2013-01-25 11:11:00,
2013-01-25 06:13:00,19.9,8.8,30.13,ENE,60,0.7,1.0,61,0.00,,,0.00,0,TxWx,2013-01-25 11:13:00,
2013-01-25 06:15:00,20.0,9.3,30.13,ENE,65,0.3,0.0,62,0.00,,,0.00,0,TxWx,2013-01-25 11:15:00,
2013-01-25 06:16:00,20.0,9.3,30.13,ENE,65,0.0,0.0,62,0.00,,,0.00,0,TxWx,2013-01-25 11:16:00,
2013-01-25 06:18:00,20.0,10.4,30.13,NE,51,1.1,1.1,65,0.00,,,0.00,0,TxWx,2013-01-25 11:18:00,
2013-01-25 06:20:00,20.1,11.3,30.13,ENE,57,1.1,1.1,68,0.00,,,0.00,0,TxWx,2013-01-25 11:20:00,
2013-01-25 06:21:00,20.1,11.3,30.13,ENE,58,1.1,1.1,68,0.00,,,0.00,0,TxWx,2013-01-25 11:21:00,
2013-01-25 06:22:00,20.0,11.2,30.13,ENE,64,1.5,1.5,68,0.00,,,0.00,0,TxWx,2013-01-25 11:22:00,
2013-01-25 06:23:00,19.9,10.9,30.13,ENE,71,1.5,1.5,67,0.00,,,0.00,0,TxWx,2013-01-25 11:23:00,
2013-01-25 06:26:00,19.8,10.9,30.13,ENE,57,0.7,0.0,67,0.00,,,0.00,0,TxWx,2013-01-25 11:26:00,
2013-01-25 06:27:00,19.8,11.0,30.13,ENE,61,1.1,1.1,68,0.00,,,0.00,0,TxWx,2013-01-25 11:27:00,
2013-01-25 06:28:00,19.7,11.0,30.13,NE,52,0.3,0.0,68,0.00,,,0.00,0,TxWx,2013-01-25 11:28:00,
2013-01-25 06:31:00,19.7,11.2,30.13,ENE,62,0.3,0.0,68,0.00,,,0.00,0,TxWx,2013-01-25 11:31:00,
2013-01-25 06:32:00,19.7,10.9,30.13,ENE,57,1.1,1.1,68,0.00,,,0.00,0,TxWx,2013-01-25 11:32:00,
2013-01-25 06:34:00,19.7,11.3,30.13,NE,35,0.3,0.0,69,0.00,,,0.00,0,TxWx,2013-01-25 11:34:00,
2013-01-25 06:36:00,19.7,11.2,30.13,ENE,67,1.5,1.5,68,0.00,,,0.00,0,TxWx,2013-01-25 11:36:00,
2013-01-25 06:37:00,19.7,10.8,30.13,NE,56,0.7,0.0,67,0.00,,,0.00,0,TxWx,2013-01-25 11:37:00,
2013-01-25 06:39:00,19.8,11.7,30.13,ENE,58,0.3,0.0,70,0.00,,,0.00,0,TxWx,2013-01-25 11:39:00,
2013-01-25 06:41:00,19.8,11.5,30.12,NE,53,0.7,0.0,69,0.00,,,0.00,0,TxWx,2013-01-25 11:41:00,
2013-01-25 06:42:00,19.8,11.4,30.13,NE,53,0.0,0.0,69,0.00,,,0.00,0,TxWx,2013-01-25 11:42:00,
2013-01-25 06:44:00,19.9,11.9,30.13,NE,52,0.0,0.0,70,0.00,,,0.00,0,TxWx,2013-01-25 11:44:00,
2013-01-25 06:46:00,19.9,11.4,30.13,NNE,19,0.3,0.0,69,0.00,,,0.00,0,TxWx,2013-01-25 11:46:00,
2013-01-25 06:47:00,19.8,12.1,30.13,NNE,33,0.7,0.0,71,0.00,,,0.00,0,TxWx,2013-01-25 11:47:00,
2013-01-25 06:49:00,20.0,12.5,30.13,ENE,70,0.3,0.0,72,0.00,,,0.00,0,TxWx,2013-01-25 11:49:00,
2013-01-25 06:51:00,20.0,11.9,30.13,NE,48,0.3,0.0,70,0.00,,,0.00,0,TxWx,2013-01-25 11:51:00,
2013-01-25 06:52:00,20.0,12.0,30.13,ENE,58,0.0,0.0,70,0.00,,,0.00,0,TxWx,2013-01-25 11:52:00,
2013-01-25 06:55:00,20.0,12.1,30.13,ENE,59,0.7,1.0,70,0.00,,,0.00,0,TxWx,2013-01-25 11:55:00,
2013-01-25 06:56:00,20.0,12.5,30.13,NE,56,1.1,1.1,72,0.00,,,0.00,0,TxWx,2013-01-25 11:56:00,
2013-01-25 06:57:00,20.0,11.8,30.13,ENE,59,0.3,0.0,70,0.00,,,0.00,0,TxWx,2013-01-25 11:57:00,
2013-01-25 07:00:00,20.0,12.0,30.13,ENE,59,0.3,0.0,70,0.00,,,0.00,0,TxWx,2013-01-25 12:00:00,
2013-01-25 07:01:00,20.0,11.9,30.13,ENE,59,1.1,1.1,70,0.00,,,0.00,0,TxWx,2013-01-25 12:01:00,
2013-01-25 07:02:00,20.0,11.8,30.13,NE,53,0.7,1.0,70,0.00,,,0.00,0,TxWx,2013-01-25 12:02:00,
2013-01-25 07:05:00,19.9,11.9,30.12,NE,51,1.1,1.1,70,0.00,,,0.00,0,TxWx,2013-01-25 12:05:00,
2013-01-25 07:06:00,19.9,11.3,30.12,ENE,59,1.1,1.1,68,0.00,,,0.00,0,TxWx,2013-01-25 12:06:00,
2013-01-25 07:07:00,19.9,11.3,30.12,NE,52,1.1,1.1,68,0.00,,,0.00,0,TxWx,2013-01-25 12:07:00,
2013-01-25 07:10:00,20.0,12.7,30.12,NE,53,0.0,0.0,72,0.00,,,0.00,0,TxWx,2013-01-25 12:10:00,
2013-01-25 07:11:00,20.0,12.3,30.12,ENE,67,0.3,0.0,71,0.00,,,0.00,0,TxWx,2013-01-25 12:11:00,
2013-01-25 07:12:00,20.0,12.3,30.12,ENE,57,0.7,0.0,71,0.00,,,0.00,0,TxWx,2013-01-25 12:12:00,
2013-01-25 07:13:00,20.0,12.3,30.12,ENE,59,0.7,0.0,71,0.00,,,0.00,0,TxWx,2013-01-25 12:13:00,
2013-01-25 07:16:00,20.0,11.4,30.12,ENE,62,0.3,0.0,68,0.00,,,0.00,0,TxWx,2013-01-25 12:16:00,
2013-01-25 07:18:00,20.0,11.5,30.12,NNE,17,0.0,0.0,69,0.00,,,0.00,0,TxWx,2013-01-25 12:18:00,
2013-01-25 07:21:00,20.0,12.4,30.12,ENE,58,0.7,0.0,71,0.00,,,0.00,0,TxWx,2013-01-25 12:21:00,
2013-01-25 07:23:00,20.0,12.2,30.12,NE,56,0.3,0.0,71,0.00,,,0.00,0,TxWx,2013-01-25 12:23:00,
2013-01-25 07:24:00,20.0,12.2,30.12,NE,56,0.3,0.0,71,0.00,,,0.00,0,TxWx,2013-01-25 12:24:00,
2013-01-25 07:26:00,20.0,12.2,30.12,NE,55,0.3,0.0,70,0.00,,,0.00,0,TxWx,2013-01-25 12:26:00,
2013-01-25 07:27:00,20.0,12.2,30.12,NE,55,1.5,1.5,70,0.00,,,0.00,0,TxWx,2013-01-25 12:27:00,
2013-01-25 07:28:00,20.0,12.0,30.12,NE,55,0.3,0.0,70,0.00,,,0.00,0,TxWx,2013-01-25 12:28:00,
2013-01-25 07:29:00,20.0,12.0,30.12,ENE,65,1.5,1.5,70,0.00,,,0.00,0,TxWx,2013-01-25 12:29:00,
2013-01-25 07:31:00,20.0,12.0,30.12,ENE,58,0.3,0.0,70,0.00,,,0.00,0,TxWx,2013-01-25 12:31:00,
2013-01-25 07:32:00,20.0,12.0,30.12,ENE,59,0.3,0.0,70,0.00,,,0.00,0,TxWx,2013-01-25 12:32:00,
2013-01-25 07:33:00,20.0,12.3,30.12,NE,53,0.0,0.0,71,0.00,,,0.00,0,TxWx,2013-01-25 12:33:00,
2013-01-25 07:34:00,20.1,12.4,30.12,NE,53,0.3,0.0,71,0.00,,,0.00,0,TxWx,2013-01-25 12:34:00,
2013-01-25 07:36:00,20.1,12.1,30.12,ENE,62,0.0,0.0,70,0.00,,,0.00,0,TxWx,2013-01-25 12:36:00,
2013-01-25 07:37:00,20.1,12.1,30.12,ENE,63,0.0,0.0,70,0.00,,,0.00,0,TxWx,2013-01-25 12:37:00,
2013-01-25 07:38:00,20.2,12.7,30.12,ENE,63,0.0,0.0,72,0.00,,,0.00,0,TxWx,2013-01-25 12:38:00,
2013-01-25 07:40:00,20.2,12.9,30.12,ENE,68,0.0,0.0,72,0.00,,,0.00,0,TxWx,2013-01-25 12:40:00,
2013-01-25 07:41:00,20.2,12.9,30.12,ENE,69,1.5,0.0,72,0.00,,,0.00,0,TxWx,2013-01-25 12:41:00,
2013-01-25 07:42:00,20.2,12.4,30.12,ENE,66,0.3,0.0,71,0.00,,,0.00,0,TxWx,2013-01-25 12:42:00,
2013-01-25 07:44:00,20.2,12.4,30.12,ENE,66,0.0,0.0,71,0.00,,,0.00,0,TxWx,2013-01-25 12:44:00,
2013-01-25 07:45:00,20.2,12.2,30.12,ENE,59,0.7,0.0,70,0.00,,,0.00,0,TxWx,2013-01-25 12:45:00,
2013-01-25 07:47:00,20.3,12.5,30.12,ENE,58,0.0,0.0,71,0.00,,,0.00,0,TxWx,2013-01-25 12:47:00,
2013-01-25 07:49:00,20.3,12.7,30.11,North,11,0.0,0.0,71,0.00,,,0.00,0,TxWx,2013-01-25 12:49:00,
2013-01-25 07:51:00,20.3,12.9,30.11,NNE,23,0.0,0.0,72,0.00,,,0.00,0,TxWx,2013-01-25 12:51:00,
2013-01-25 07:52:00,20.3,12.8,30.12,NE,49,0.3,0.0,72,0.00,,,0.00,0,TxWx,2013-01-25 12:52:00,
2013-01-25 07:54:00,20.2,12.6,30.12,South,169,0.0,0.0,71,0.00,,,0.00,0,TxWx,2013-01-25 12:54:00,
2013-01-25 07:56:00,20.3,13.1,30.12,NE,41,0.0,0.0,73,0.00,,,0.00,0,TxWx,2013-01-25 12:56:00,
2013-01-25 07:57:00,20.4,13.3,30.12,NE,40,0.0,0.0,73,0.00,,,0.00,0,TxWx,2013-01-25 12:57:00,
2013-01-25 07:58:00,20.4,13.3,30.12,NE,40,0.0,0.0,73,0.00,,,0.00,0,TxWx,2013-01-25 12:58:00,
2013-01-25 07:59:00,20.4,13.0,30.12,NE,41,0.0,0.0,72,0.00,,,0.00,0,TxWx,2013-01-25 12:59:00,
2013-01-25 08:01:00,20.4,13.1,30.12,SSE,159,0.0,0.0,73,0.00,,,0.00,0,TxWx,2013-01-25 13:01:00,
2013-01-25 08:03:00,20.5,13.3,30.12,North,350,0.0,0.0,73,0.00,,,0.00,0,TxWx,2013-01-25 13:03:00,
2013-01-25 08:04:00,20.5,13.3,30.12,North,350,0.0,0.0,73,0.00,,,0.00,0,TxWx,2013-01-25 13:04:00,
2013-01-25 08:06:00,20.6,13.6,30.11,North,351,0.0,0.0,73,0.00,,,0.00,0,TxWx,2013-01-25 13:06:00,
2013-01-25 08:08:00,20.7,14.0,30.11,North,350,0.0,0.0,74,0.00,,,0.00,0,TxWx,2013-01-25 13:08:00,
2013-01-25 08:09:00,20.9,14.2,30.11,WNW,285,0.0,0.0,75,0.00,,,0.00,0,TxWx,2013-01-25 13:09:00,
2013-01-25 08:11:00,21.3,14.6,30.11,SW,216,0.0,0.0,74,0.00,,,0.00,0,TxWx,2013-01-25 13:11:00,
2013-01-25 08:13:00,21.6,15.0,30.11,WSW,251,0.0,0.0,75,0.00,,,0.00,0,TxWx,2013-01-25 13:13:00,
2013-01-25 08:14:00,21.6,15.0,30.11,SW,215,0.0,0.0,75,0.00,,,0.00,0,TxWx,2013-01-25 13:14:00,
2013-01-25 08:16:00,22.1,15.6,30.11,SSW,211,0.0,0.0,75,0.00,,,0.00,0,TxWx,2013-01-25 13:16:00,
2013-01-25 08:18:00,22.2,15.7,30.11,SW,227,0.0,0.0,75,0.00,,,0.00,0,TxWx,2013-01-25 13:18:00,
2013-01-25 08:19:00,22.2,15.7,30.11,SW,227,0.0,0.0,75,0.00,,,0.00,0,TxWx,2013-01-25 13:19:00,
2013-01-25 08:20:00,22.3,15.9,30.11,WNW,299,0.0,0.0,75,0.00,,,0.00,0,TxWx,2013-01-25 13:20:00,
2013-01-25 08:21:00,22.5,15.8,30.10,WSW,255,0.0,0.0,75,0.00,,,0.00,0,TxWx,2013-01-25 13:21:00,
2013-01-25 08:23:00,22.4,15.6,30.10,ENE,77,1.1,1.1,74,0.00,,,0.00,0,TxWx,2013-01-25 13:23:00,
2013-01-25 08:24:00,22.3,15.5,30.10,East,80,0.0,0.0,74,0.00,,,0.00,0,TxWx,2013-01-25 13:24:00,
2013-01-25 08:25:00,22.3,15.0,30.10,ENE,71,0.7,0.0,73,0.00,,,0.00,0,TxWx,2013-01-25 13:25:00,
2013-01-25 08:26:00,22.1,14.1,30.10,ESE,106,0.3,0.0,70,0.00,,,0.00,0,TxWx,2013-01-25 13:26:00,
2013-01-25 08:28:00,22.0,14.3,30.10,ENE,58,0.0,0.0,71,0.00,,,0.00,0,TxWx,2013-01-25 13:28:00,
2013-01-25 08:29:00,21.9,14.4,30.10,ENE,58,0.0,0.0,72,0.00,,,0.00,0,TxWx,2013-01-25 13:29:00,
2013-01-25 08:30:00,21.9,14.4,30.10,ENE,58,0.0,0.0,72,0.00,,,0.00,0,TxWx,2013-01-25 13:30:00,
2013-01-25 08:32:00,21.9,14.9,30.11,North,352,0.0,0.0,73,0.00,,,0.00,0,TxWx,2013-01-25 13:32:00,
2013-01-25 08:33:00,21.7,14.3,30.11,NNW,347,0.0,0.0,72,0.00,,,0.00,0,TxWx,2013-01-25 13:33:00,
2013-01-25 08:34:00,21.6,14.0,30.11,NNW,347,0.0,0.0,72,0.00,,,0.00,0,TxWx,2013-01-25 13:34:00,
2013-01-25 08:35:00,21.6,14.0,30.11,NNW,347,0.0,0.0,72,0.00,,,0.00,0,TxWx,2013-01-25 13:35:00,
2013-01-25 08:37:00,21.8,14.7,30.11,WNW,286,0.0,0.0,73,0.00,,,0.00,0,TxWx,2013-01-25 13:37:00,
2013-01-25 08:39:00,22.4,15.8,30.11,WSW,243,0.0,0.0,75,0.00,,,0.00,0,TxWx,2013-01-25 13:39:00,
2013-01-25 08:40:00,22.5,16.2,30.11,SW,234,0.0,0.0,76,0.00,,,0.00,0,TxWx,2013-01-25 13:40:00,
2013-01-25 08:42:00,22.7,16.2,30.11,WNW,301,0.0,0.0,75,0.00,,,0.00,0,TxWx,2013-01-25 13:42:00,
2013-01-25 08:44:00,23.0,16.7,30.11,WNW,283,0.0,0.0,76,0.00,,,0.00,0,TxWx,2013-01-25 13:44:00,
2013-01-25 08:45:00,23.1,16.9,30.11,West,270,0.0,0.0,76,0.00,,,0.00,0,TxWx,2013-01-25 13:45:00,
2013-01-25 08:47:00,23.2,17.1,30.11,SSW,196,0.3,0.0,77,0.00,,,0.00,0,TxWx,2013-01-25 13:47:00,
2013-01-25 08:49:00,23.3,17.7,30.11,West,262,0.7,1.0,78,0.00,,,0.00,0,TxWx,2013-01-25 13:49:00,
2013-01-25 08:50:00,23.4,17.6,30.11,West,267,0.3,0.0,78,0.00,,,0.00,0,TxWx,2013-01-25 13:50:00,
2013-01-25 08:52:00,23.5,17.7,30.11,WNW,301,1.1,1.1,78,0.00,,,0.00,0,TxWx,2013-01-25 13:52:00,
2013-01-25 08:54:00,23.5,18.1,30.11,WNW,303,0.0,0.0,79,0.00,,,0.00,0,TxWx,2013-01-25 13:54:00,
2013-01-25 08:55:00,23.5,18.3,30.11,NW,306,0.0,0.0,80,0.00,,,0.00,0,TxWx,2013-01-25 13:55:00,
2013-01-25 08:57:00,23.6,18.5,30.11,WNW,283,0.0,0.0,80,0.00,,,0.00,0,TxWx,2013-01-25 13:57:00,
2013-01-25 09:00:00,23.6,19.1,30.11,WNW,301,0.0,0.0,82,0.00,,,0.00,0,TxWx,2013-01-25 14:00:00,
2013-01-25 09:01:00,23.7,19.4,30.11,WNW,301,0.0,0.0,83,0.00,,,0.00,0,TxWx,2013-01-25 14:01:00,
2013-01-25 09:03:00,23.8,19.7,30.11,WNW,295,0.0,0.0,84,0.00,,,0.00,0,TxWx,2013-01-25 14:03:00,
2013-01-25 09:06:00,23.8,19.7,30.11,NNW,333,0.0,0.0,84,0.00,,,0.00,0,TxWx,2013-01-25 14:06:00,
2013-01-25 09:08:00,23.8,19.8,30.11,NNE,21,0.0,0.0,84,0.00,,,0.00,0,TxWx,2013-01-25 14:08:00,
2013-01-25 09:11:00,23.9,20.1,30.11,NE,52,0.0,0.0,85,0.00,,,0.00,0,TxWx,2013-01-25 14:11:00,
2013-01-25 09:27:00,23.6,21.3,30.11,WNW,301,0.0,0.0,90,0.00,,,0.00,0,TxWx,2013-01-25 14:27:00,
2013-01-25 09:28:00,23.7,21.4,30.11,WNW,301,0.0,0.0,90,0.00,,,0.00,0,TxWx,2013-01-25 14:28:00,
2013-01-25 09:32:00,23.8,21.7,30.11,North,1,0.0,0.0,91,0.00,,,0.00,0,TxWx,2013-01-25 14:32:00,
2013-01-25 09:33:00,23.9,21.8,30.11,NNW,340,0.0,0.0,91,0.00,,,0.00,0,TxWx,2013-01-25 14:33:00,
2013-01-25 10:05:00,23.3,21.5,30.10,SW,235,0.7,1.0,92,0.00,,,0.00,0,TxWx,2013-01-25 15:05:00,
2013-01-25 10:10:00,23.4,21.6,30.10,West,271,0.3,0.0,92,0.00,,,0.00,0,TxWx,2013-01-25 15:10:00,
2013-01-25 10:15:00,23.3,21.6,30.10,SSW,213,0.0,0.0,93,0.00,,,0.00,0,TxWx,2013-01-25 15:15:00,
2013-01-25 10:38:00,23.8,22.5,30.09,WNW,283,0.0,0.0,94,0.00,,,0.00,0,TxWx,2013-01-25 15:38:00,
2013-01-25 11:00:00,24.2,22.9,30.08,SW,226,0.0,0.0,94,0.00,,,0.00,0,TxWx,2013-01-25 16:00:00,
2013-01-25 11:05:00,24.4,23.2,30.07,South,174,0.7,0.0,95,0.00,,,0.00,0,TxWx,2013-01-25 16:05:00,
2013-01-25 11:06:00,24.4,23.2,30.07,South,174,0.7,0.0,95,0.00,,,0.00,0,TxWx,2013-01-25 16:06:00,
2013-01-25 11:17:00,25.0,24.2,30.07,WSW,256,0.3,0.0,96,0.00,,,0.00,0,TxWx,2013-01-25 16:17:00,
2013-01-25 11:18:00,25.0,24.2,30.07,West,263,0.7,0.0,96,0.00,,,0.00,0,TxWx,2013-01-25 16:18:00,
2013-01-25 11:22:00,25.0,24.1,30.07,South,184,0.7,0.0,96,0.00,,,0.00,0,TxWx,2013-01-25 16:22:00,
2013-01-25 11:23:00,25.0,24.1,30.07,South,172,0.7,0.0,96,0.00,,,0.00,0,TxWx,2013-01-25 16:23:00,
2013-01-25 11:27:00,25.1,24.3,30.06,South,190,1.1,1.1,96,0.00,,,0.00,0,TxWx,2013-01-25 16:27:00,
2013-01-25 11:28:00,25.1,24.3,30.06,SSW,203,2.3,2.3,96,0.00,,,0.00,0,TxWx,2013-01-25 16:28:00,
2013-01-25 11:37:00,25.1,24.4,30.06,SW,227,0.0,0.0,97,0.00,,,0.00,0,TxWx,2013-01-25 16:37:00,
2013-01-25 11:42:00,25.3,24.7,30.05,South,187,0.3,0.0,97,0.00,,,0.00,0,TxWx,2013-01-25 16:42:00,
2013-01-25 11:43:00,25.3,24.7,30.05,South,187,0.3,0.0,97,0.00,,,0.00,0,TxWx,2013-01-25 16:43:00,
2013-01-25 12:03:00,26.3,26.0,30.03,SSE,163,0.0,0.0,98,0.00,,,0.00,0,TxWx,2013-01-25 17:03:00,
2013-01-25 12:04:00,26.3,26.0,30.03,SSE,163,0.0,0.0,98,0.00,,,0.00,0,TxWx,2013-01-25 17:04:00,
2013-01-25 12:08:00,26.4,26.1,30.02,SSW,211,0.0,0.0,98,0.00,,,0.00,0,TxWx,2013-01-25 17:08:00,
2013-01-25 12:09:00,26.4,26.1,30.02,SSW,192,0.3,0.0,98,0.00,,,0.00,0,TxWx,2013-01-25 17:09:00,
2013-01-25 12:52:00,28.0,28.0,30.02,NNE,14,0.0,0.0,100,0.00,,,0.00,0,TxWx,2013-01-25 17:52:00,
2013-01-25 12:57:00,28.1,28.1,30.01,West,266,0.0,0.0,99,0.00,,,0.00,0,TxWx,2013-01-25 17:57:00,
2013-01-25 13:02:00,28.3,28.3,30.01,WSW,255,0.3,0.0,100,0.00,,,0.00,0,TxWx,2013-01-25 18:02:00,
2013-01-25 13:07:00,28.6,28.6,30.01,WSW,252,1.1,0.0,100,0.01,,,0.01,0,TxWx,2013-01-25 18:07:00,
2013-01-25 13:08:00,28.6,28.6,30.01,West,268,0.7,1.0,100,0.01,,,0.01,0,TxWx,2013-01-25 18:08:00,
2013-01-25 13:12:00,28.8,28.8,30.00,West,270,0.7,0.0,100,0.01,,,0.01,0,TxWx,2013-01-25 18:12:00,
2013-01-25 13:13:00,28.8,28.8,30.00,WNW,299,0.7,0.0,100,0.01,,,0.01,0,TxWx,2013-01-25 18:13:00,
2013-01-25 13:17:00,29.1,29.1,30.00,NE,54,0.0,0.0,100,0.01,,,0.01,0,TxWx,2013-01-25 18:17:00,
2013-01-25 13:18:00,29.1,29.1,30.00,NE,54,0.0,0.0,100,0.01,,,0.01,0,TxWx,2013-01-25 18:18:00,
2013-01-25 13:22:00,29.3,29.3,30.00,West,274,0.3,0.0,100,0.02,,,0.02,0,TxWx,2013-01-25 18:22:00,
2013-01-25 13:23:00,29.3,29.3,30.00,SSW,198,0.3,0.0,100,0.02,,,0.02,0,TxWx,2013-01-25 18:23:00,
2013-01-25 13:28:00,29.7,29.7,29.99,South,190,0.0,0.0,100,0.03,,,0.03,0,TxWx,2013-01-25 18:28:00,
2013-01-25 13:33:00,30.0,30.0,29.99,SSW,209,1.9,2.0,100,0.03,,,0.03,0,TxWx,2013-01-25 18:33:00,
2013-01-25 13:34:00,30.2,30.2,29.99,SW,224,1.9,1.9,100,0.04,,,0.04,0,TxWx,2013-01-25 18:34:00,
2013-01-25 13:38:00,30.7,30.7,29.99,WNW,284,1.5,1.5,100,0.05,,,0.05,0,TxWx,2013-01-25 18:38:00,
2013-01-25 13:39:00,30.8,30.8,29.99,WSW,241,0.7,0.0,100,0.05,,,0.05,0,TxWx,2013-01-25 18:39:00,
2013-01-25 13:43:00,31.1,31.1,29.99,WSW,258,1.1,1.1,100,0.06,,,0.06,0,TxWx,2013-01-25 18:43:00,
2013-01-25 13:44:00,31.1,31.1,29.99,WSW,241,0.3,0.0,100,0.06,,,0.07,0,TxWx,2013-01-25 18:44:00,
2013-01-25 13:48:00,31.3,31.3,29.99,SSW,213,2.3,2.3,100,0.08,,,0.08,0,TxWx,2013-01-25 18:48:00,
2013-01-25 13:49:00,31.3,31.3,29.99,SSW,202,1.1,1.1,100,0.09,,,0.09,0,TxWx,2013-01-25 18:49:00,
2013-01-25 13:53:00,31.6,31.6,29.98,South,186,1.5,1.5,100,0.10,,,0.10,0,TxWx,2013-01-25 18:53:00,
2013-01-25 13:54:00,31.6,31.6,29.98,WSW,250,1.9,1.9,100,0.11,,,0.11,0,TxWx,2013-01-25 18:54:00,
2013-01-25 13:55:00,31.6,31.6,29.98,West,265,2.3,2.3,100,0.11,,,0.11,0,TxWx,2013-01-25 18:55:00,
2013-01-25 13:59:00,32.0,32.0,29.98,West,262,0.3,0.0,100,0.12,,,0.13,0,TxWx,2013-01-25 18:59:00,
2013-01-25 14:00:00,32.6,32.6,29.97,SSW,203,1.5,1.5,100,0.13,,,0.13,0,TxWx,2013-01-25 19:00:00,
2013-01-25 14:04:00,34.0,34.0,29.97,SW,225,2.3,2.3,100,0.14,,,0.14,0,TxWx,2013-01-25 19:04:00,
2013-01-25 14:05:00,34.0,34.0,29.97,West,268,2.3,2.3,100,0.15,,,0.15,0,TxWx,2013-01-25 19:05:00,
2013-01-25 14:09:00,34.0,34.0,29.97,SSW,193,1.1,1.1,100,0.16,,,0.16,0,TxWx,2013-01-25 19:09:00,
2013-01-25 14:10:00,34.6,34.6,29.97,WSW,255,0.7,0.0,100,0.15,,,0.17,0,TxWx,2013-01-25 19:10:00,
2013-01-25 14:14:00,36.5,36.5,29.96,WNW,298,2.3,3.0,100,0.17,,,0.18,0,TxWx,2013-01-25 19:14:00,
2013-01-25 14:15:00,37.0,37.0,29.96,WNW,303,1.1,1.1,100,0.17,,,0.18,0,TxWx,2013-01-25 19:15:00,
2013-01-25 14:19:00,37.9,37.9,29.95,WNW,301,3.4,4.0,100,0.18,,,0.19,0,TxWx,2013-01-25 19:19:00,
2013-01-25 14:20:00,38.5,38.5,29.95,NW,305,1.9,2.0,100,0.18,,,0.19,0,TxWx,2013-01-25 19:20:00,
2013-01-25 14:21:00,38.5,38.5,29.95,West,279,1.5,1.5,100,0.18,,,0.19,0,TxWx,2013-01-25 19:21:00,
2013-01-25 14:24:00,39.3,38.8,29.95,WNW,300,4.9,6.0,98,0.17,,,0.19,0,TxWx,2013-01-25 19:24:00,
2013-01-25 14:25:00,39.5,38.9,29.95,West,260,5.3,5.3,97,0.18,,,0.20,0,TxWx,2013-01-25 19:25:00,
2013-01-25 14:26:00,39.5,38.9,29.95,WNW,302,3.4,3.4,97,0.18,,,0.20,0,TxWx,2013-01-25 19:26:00,
2013-01-25 14:29:00,39.5,38.4,29.94,West,278,3.0,3.0,95,0.17,,,0.20,0,TxWx,2013-01-25 19:29:00,
2013-01-25 14:30:00,39.4,38.2,29.94,NW,312,5.3,5.3,95,0.18,,,0.21,0,TxWx,2013-01-25 19:30:00,
2013-01-25 14:31:00,39.4,38.2,29.94,NW,310,1.9,2.0,95,0.18,,,0.21,0,TxWx,2013-01-25 19:31:00,
2013-01-25 14:34:00,39.7,38.5,29.94,SSE,158,3.0,3.0,95,0.17,,,0.21,0,TxWx,2013-01-25 19:34:00,
2013-01-25 14:35:00,39.8,38.5,29.94,NNE,25,2.6,3.0,95,0.17,,,0.21,0,TxWx,2013-01-25 19:35:00,
2013-01-25 14:36:00,39.9,38.8,29.94,SW,219,1.9,2.0,95,0.17,,,0.21,0,TxWx,2013-01-25 19:36:00,
2013-01-25 14:39:00,39.9,38.7,29.94,WNW,303,5.3,6.0,95,0.16,,,0.21,0,TxWx,2013-01-25 19:39:00,
2013-01-25 14:40:00,39.9,38.7,29.94,SW,216,6.0,6.0,95,0.16,,,0.21,0,TxWx,2013-01-25 19:40:00,
2013-01-25 14:41:00,39.8,38.5,29.94,WNW,303,1.5,1.5,94,0.15,,,0.21,0,TxWx,2013-01-25 19:41:00,
2013-01-25 14:44:00,39.4,38.0,29.94,WNW,289,6.0,6.0,94,0.14,,,0.21,0,TxWx,2013-01-25 19:44:00,
2013-01-25 14:45:00,39.8,38.6,29.94,WNW,303,5.7,6.0,95,0.14,,,0.21,0,TxWx,2013-01-25 19:45:00,
2013-01-25 14:46:00,40.2,38.8,29.94,SW,215,3.0,4.0,94,0.14,,,0.21,0,TxWx,2013-01-25 19:46:00,
2013-01-25 14:49:00,39.9,38.1,29.94,SSW,202,1.9,2.0,93,0.12,,,0.21,0,TxWx,2013-01-25 19:49:00,
2013-01-25 14:50:00,39.7,38.0,29.94,West,259,1.5,2.0,93,0.12,,,0.21,0,TxWx,2013-01-25 19:50:00,
2013-01-25 14:51:00,39.6,38.0,29.94,SSW,194,4.6,4.6,94,0.12,,,0.21,0,TxWx,2013-01-25 19:51:00,
2013-01-25 14:54:00,39.4,37.8,29.95,SW,234,6.4,6.4,94,0.10,,,0.21,0,TxWx,2013-01-25 19:54:00,
2013-01-25 14:56:00,39.9,38.3,29.95,WSW,239,4.6,4.6,93,0.10,,,0.21,0,TxWx,2013-01-25 19:56:00,
2013-01-25 15:00:00,39.7,37.7,29.95,SSW,199,4.2,4.2,92,0.08,,,0.21,0,TxWx,2013-01-25 20:00:00,
2013-01-25 15:01:00,39.6,37.6,29.95,WSW,240,3.4,3.4,92,0.08,,,0.21,0,TxWx,2013-01-25 20:01:00,
2013-01-25 15:02:00,39.5,37.5,29.95,West,276,3.8,6.0,92,0.08,,,0.21,0,TxWx,2013-01-25 20:02:00,
2013-01-25 15:05:00,39.8,38.0,29.95,West,269,2.3,2.3,93,0.07,,,0.21,0,TxWx,2013-01-25 20:05:00,
2013-01-25 15:06:00,40.1,38.1,29.95,SW,218,6.4,7.0,92,0.06,,,0.21,0,TxWx,2013-01-25 20:06:00,
2013-01-25 15:07:00,40.1,38.1,29.95,SSW,201,4.6,4.6,92,0.06,,,0.21,0,TxWx,2013-01-25 20:07:00,
2013-01-25 15:10:00,39.9,37.8,29.95,West,275,6.0,6.0,92,0.04,,,0.21,0,TxWx,2013-01-25 20:10:00,
2013-01-25 15:11:00,40.0,37.8,29.95,West,266,4.2,4.2,91,0.04,,,0.21,0,TxWx,2013-01-25 20:11:00,
2013-01-25 15:12:00,40.0,37.8,29.95,WSW,239,3.8,0.0,91,0.04,,,0.21,0,TxWx,2013-01-25 20:12:00,
2013-01-25 15:15:00,39.6,37.6,29.95,SW,216,3.0,3.0,92,0.04,,,0.21,0,TxWx,2013-01-25 20:15:00,
2013-01-25 15:16:00,40.5,38.4,29.95,West,267,5.3,5.3,92,0.04,,,0.21,0,TxWx,2013-01-25 20:16:00,
2013-01-25 15:17:00,40.5,38.4,29.95,WNW,302,4.9,4.9,92,0.03,,,0.21,0,TxWx,2013-01-25 20:17:00,
2013-01-25 15:20:00,40.4,37.8,29.95,West,281,5.7,6.0,90,0.02,,,0.21,0,TxWx,2013-01-25 20:20:00,
2013-01-25 15:21:00,40.2,37.7,29.95,WNW,284,5.3,7.0,90,0.02,,,0.21,0,TxWx,2013-01-25 20:21:00,
2013-01-25 15:22:00,40.4,37.9,29.94,WNW,297,1.1,1.1,90,0.02,,,0.21,0,TxWx,2013-01-25 20:22:00,
2013-01-25 15:23:00,40.4,37.9,29.94,SW,231,3.4,4.0,90,0.02,,,0.21,0,TxWx,2013-01-25 20:23:00,
2013-01-25 15:25:00,40.2,37.8,29.94,WNW,301,6.8,7.0,91,0.02,,,0.21,0,TxWx,2013-01-25 20:25:00,
2013-01-25 15:26:00,40.9,38.3,29.93,WNW,292,8.7,8.7,90,0.02,,,0.21,0,TxWx,2013-01-25 20:26:00,
2013-01-25 15:27:00,41.0,38.3,29.93,WSW,254,6.4,7.0,90,0.02,,,0.21,0,TxWx,2013-01-25 20:27:00,
2013-01-25 15:28:00,41.0,38.3,29.93,WNW,303,2.6,3.0,90,0.01,,,0.21,0,TxWx,2013-01-25 20:28:00,
2013-01-25 15:30:00,41.3,38.3,29.93,WNW,302,2.6,2.6,89,0.01,,,0.21,0,TxWx,2013-01-25 20:30:00,
2013-01-25 15:31:00,41.2,38.2,29.93,WNW,287,4.6,6.0,89,0.01,,,0.21,0,TxWx,2013-01-25 20:31:00,
2013-01-25 15:32:00,41.0,38.1,29.93,NE,46,3.8,5.0,89,0.01,,,0.21,0,TxWx,2013-01-25 20:32:00,
2013-01-25 15:33:00,41.0,38.2,29.93,West,277,10.2,12.0,89,0.00,,,0.21,0,TxWx,2013-01-25 20:33:00,
2013-01-25 15:35:00,41.4,38.5,29.92,SW,228,3.8,4.0,89,0.00,,,0.21,0,TxWx,2013-01-25 20:35:00,
2013-01-25 15:37:00,41.3,38.4,29.93,SW,228,2.6,3.0,89,0.00,,,0.21,0,TxWx,2013-01-25 20:37:00,
2013-01-25 15:38:00,41.3,38.4,29.93,North,2,3.0,3.0,89,0.00,,,0.21,0,TxWx,2013-01-25 20:38:00,
2013-01-25 15:40:00,41.3,38.4,29.93,WNW,284,4.6,4.6,89,0.00,,,0.21,0,TxWx,2013-01-25 20:40:00,
2013-01-25 15:42:00,41.6,38.5,29.93,WSW,245,8.4,9.0,88,0.00,,,0.21,0,TxWx,2013-01-25 20:42:00,
2013-01-25 15:43:00,41.7,38.5,29.93,SW,224,4.2,6.0,88,0.00,,,0.21,0,TxWx,2013-01-25 20:43:00,
2013-01-25 15:45:00,42.0,38.6,29.93,WSW,243,4.2,4.2,87,0.00,,,0.21,0,TxWx,2013-01-25 20:45:00,
2013-01-25 15:47:00,41.8,38.5,29.93,NW,318,2.6,4.0,87,0.00,,,0.21,0,TxWx,2013-01-25 20:47:00,
2013-01-25 15:48:00,41.7,38.4,29.93,SSW,212,4.9,5.0,87,0.00,,,0.21,0,TxWx,2013-01-25 20:48:00,
2013-01-25 15:50:00,41.7,38.2,29.93,SW,216,5.3,7.0,87,0.00,,,0.21,0,TxWx,2013-01-25 20:50:00,
2013-01-25 15:52:00,41.5,38.1,29.93,South,182,6.8,7.0,87,0.00,,,0.21,0,TxWx,2013-01-25 20:52:00,
2013-01-25 15:53:00,41.9,38.5,29.93,WSW,258,7.2,7.2,87,0.00,,,0.21,0,TxWx,2013-01-25 20:53:00,
2013-01-25 15:54:00,41.9,38.5,29.93,WSW,249,11.4,12.0,87,0.00,,,0.21,0,TxWx,2013-01-25 20:54:00,
2013-01-25 15:55:00,42.3,38.8,29.93,West,281,3.8,3.8,87,0.00,,,0.21,0,TxWx,2013-01-25 20:55:00,
2013-01-25 15:57:00,41.7,38.3,29.93,West,260,3.8,3.8,87,0.00,,,0.21,0,TxWx,2013-01-25 20:57:00,
2013-01-25 15:58:00,41.6,38.1,29.94,South,179,3.0,3.0,87,0.00,,,0.21,0,TxWx,2013-01-25 20:58:00,
2013-01-25 15:59:00,41.6,38.1,29.93,WSW,251,3.4,3.4,87,0.00,,,0.21,0,TxWx,2013-01-25 20:59:00,
2013-01-25 16:01:00,41.3,37.9,29.94,SW,215,5.7,6.0,87,0.00,,,0.21,0,TxWx,2013-01-25 21:01:00,
2013-01-25 16:03:00,41.5,38.3,29.94,West,273,4.9,5.0,88,0.00,,,0.21,0,TxWx,2013-01-25 21:03:00,
2013-01-25 16:04:00,41.1,37.9,29.94,SW,234,3.8,5.0,88,0.00,,,0.21,0,TxWx,2013-01-25 21:04:00,
2013-01-25 16:06:00,41.3,38.1,29.94,WSW,240,3.4,4.0,88,0.00,,,0.21,0,TxWx,2013-01-25 21:06:00,
2013-01-25 16:08:00,41.2,38.0,29.94,SW,227,4.6,4.6,88,0.00,,,0.21,0,TxWx,2013-01-25 21:08:00,
2013-01-25 16:10:00,41.1,37.9,29.94,SW,225,4.9,5.0,88,0.00,,,0.21,0,TxWx,2013-01-25 21:10:00,
2013-01-25 16:11:00,41.1,38.1,29.94,West,264,4.6,4.6,88,0.00,,,0.21,0,TxWx,2013-01-25 21:11:00,
2013-01-25 16:13:00,41.5,38.6,29.94,SW,236,4.2,4.2,89,0.00,,,0.21,0,TxWx,2013-01-25 21:13:00,
2013-01-25 16:15:00,41.4,38.2,29.94,SW,215,4.2,4.2,88,0.00,,,0.21,0,TxWx,2013-01-25 21:15:00,
2013-01-25 16:16:00,41.6,38.6,29.94,WSW,252,3.8,4.0,88,0.00,,,0.21,0,TxWx,2013-01-25 21:16:00,
2013-01-25 16:18:00,41.6,38.5,29.94,West,268,3.4,3.4,88,0.00,,,0.21,0,TxWx,2013-01-25 21:18:00,
2013-01-25 16:20:00,41.5,38.4,29.94,SW,226,6.0,6.0,88,0.00,,,0.21,0,TxWx,2013-01-25 21:20:00,
2013-01-25 16:22:00,41.8,38.7,29.94,WNW,302,4.6,5.0,88,0.00,,,0.21,0,TxWx,2013-01-25 21:22:00,
2013-01-25 16:23:00,42.0,38.8,29.95,WNW,291,3.8,4.0,88,0.00,,,0.21,0,TxWx,2013-01-25 21:23:00,
2013-01-25 16:25:00,41.9,38.6,29.94,West,278,3.0,3.0,87,0.00,,,0.21,0,TxWx,2013-01-25 21:25:00,
2013-01-25 16:27:00,41.7,38.4,29.94,WSW,257,4.9,4.9,87,0.00,,,0.21,0,TxWx,2013-01-25 21:27:00,
2013-01-25 16:28:00,42.2,38.8,29.95,WSW,252,1.5,2.0,87,0.00,,,0.21,0,TxWx,2013-01-25 21:28:00,
2013-01-25 16:29:00,42.2,38.8,29.95,WSW,255,3.0,3.0,87,0.00,,,0.21,0,TxWx,2013-01-25 21:29:00,
2013-01-25 16:30:00,42.2,38.8,29.95,West,272,3.8,5.0,87,0.00,,,0.21,0,TxWx,2013-01-25 21:30:00,
2013-01-25 16:32:00,41.8,38.3,29.95,SSW,211,4.9,5.0,87,0.00,,,0.21,0,TxWx,2013-01-25 21:32:00,
2013-01-25 16:34:00,41.9,38.4,29.95,South,172,2.6,3.0,87,0.00,,,0.21,0,TxWx,2013-01-25 21:34:00,
2013-01-25 16:35:00,41.6,38.1,29.95,WNW,282,2.6,2.6,87,0.00,,,0.21,0,TxWx,2013-01-25 21:35:00,
2013-01-25 16:37:00,41.3,38.0,29.95,WNW,295,3.8,4.0,87,0.00,,,0.21,0,TxWx,2013-01-25 21:37:00,
2013-01-25 16:39:00,41.5,38.3,29.95,SW,220,4.2,6.0,88,0.00,,,0.21,0,TxWx,2013-01-25 21:39:00,
2013-01-25 16:40:00,41.5,38.3,29.95,West,269,5.3,5.3,88,0.00,,,0.21,0,TxWx,2013-01-25 21:40:00,
2013-01-25 16:42:00,41.7,38.6,29.95,WSW,249,2.3,2.3,88,0.00,,,0.21,0,TxWx,2013-01-25 21:42:00,
2013-01-25 16:44:00,41.5,38.3,29.95,WSW,248,2.3,2.3,88,0.00,,,0.21,0,TxWx,2013-01-25 21:44:00,
2013-01-25 16:45:00,41.4,38.2,29.95,WNW,303,8.7,8.7,88,0.00,,,0.21,0,TxWx,2013-01-25 21:45:00,
2013-01-25 16:47:00,41.6,38.4,29.95,West,270,4.6,4.6,88,0.00,,,0.21,0,TxWx,2013-01-25 21:47:00,
2013-01-25 16:49:00,41.4,38.3,29.95,WSW,255,3.0,3.0,88,0.00,,,0.21,0,TxWx,2013-01-25 21:49:00,
2013-01-25 16:50:00,41.4,38.3,29.95,WSW,246,6.4,6.4,88,0.00,,,0.21,0,TxWx,2013-01-25 21:50:00,
2013-01-25 16:52:00,41.2,38.2,29.95,SW,233,1.9,2.0,89,0.00,,,0.21,0,TxWx,2013-01-25 21:52:00,
2013-01-25 16:54:00,41.2,38.3,29.95,NW,312,3.8,6.0,89,0.00,,,0.21,0,TxWx,2013-01-25 21:54:00,
2013-01-25 16:55:00,41.2,38.3,29.95,WSW,251,3.4,3.4,89,0.00,,,0.21,0,TxWx,2013-01-25 21:55:00,
2013-01-25 16:58:00,41.4,38.5,29.95,WSW,258,3.4,3.4,89,0.00,,,0.21,0,TxWx,2013-01-25 21:58:00,
2013-01-25 17:00:00,41.2,38.3,29.95,WSW,256,3.4,3.4,89,0.00,,,0.21,0,TxWx,2013-01-25 22:00:00,
2013-01-25 17:03:00,41.3,38.5,29.95,NW,307,1.9,2.0,89,0.00,,,0.21,0,TxWx,2013-01-25 22:03:00,
2013-01-25 17:05:00,41.6,38.9,29.95,WNW,302,1.9,2.0,89,0.00,,,0.21,0,TxWx,2013-01-25 22:05:00,
2013-01-25 17:08:00,41.9,38.9,29.95,WSW,246,3.8,4.0,88,0.00,,,0.21,0,TxWx,2013-01-25 22:08:00,
2013-01-25 17:10:00,41.8,38.6,29.95,SW,228,2.3,2.3,88,0.00,,,0.21,0,TxWx,2013-01-25 22:10:00,
2013-01-25 17:13:00,41.5,38.4,29.95,WNW,303,1.1,1.1,88,0.00,,,0.21,0,TxWx,2013-01-25 22:13:00,
2013-01-25 17:15:00,41.5,38.5,29.95,South,180,1.1,1.1,88,0.00,,,0.21,0,TxWx,2013-01-25 22:15:00,
2013-01-25 17:18:00,41.3,38.3,29.95,SW,218,1.5,1.5,89,0.00,,,0.21,0,TxWx,2013-01-25 22:18:00,
2013-01-25 17:20:00,41.2,38.3,29.96,SW,232,1.1,1.1,89,0.00,,,0.21,0,TxWx,2013-01-25 22:20:00,
2013-01-25 17:21:00,41.2,38.3,29.96,South,173,1.5,1.5,89,0.00,,,0.21,0,TxWx,2013-01-25 22:21:00,
2013-01-25 17:23:00,41.2,38.4,29.96,WNW,303,0.0,0.0,89,0.00,,,0.21,0,TxWx,2013-01-25 22:23:00,
2013-01-25 17:25:00,41.2,38.5,29.96,WSW,256,2.3,2.3,90,0.00,,,0.21,0,TxWx,2013-01-25 22:25:00,
2013-01-25 17:26:00,41.2,38.5,29.96,WSW,244,2.3,2.3,90,0.00,,,0.21,0,TxWx,2013-01-25 22:26:00,
2013-01-25 17:28:00,41.2,38.4,29.96,West,270,0.7,0.0,89,0.00,,,0.21,0,TxWx,2013-01-25 22:28:00,
2013-01-25 17:30:00,41.1,38.4,29.96,WNW,303,1.9,1.9,89,0.00,,,0.21,0,TxWx,2013-01-25 22:30:00,
2013-01-25 17:31:00,41.1,38.4,29.96,ENE,57,3.8,3.8,89,0.00,,,0.21,0,TxWx,2013-01-25 22:31:00,
2013-01-25 17:33:00,41.0,38.4,29.96,SSE,147,4.2,4.2,90,0.00,,,0.21,0,TxWx,2013-01-25 22:33:00,
2013-01-25 17:36:00,41.3,38.7,29.97,WNW,294,1.9,2.0,90,0.00,,,0.21,0,TxWx,2013-01-25 22:36:00,
2013-01-25 17:38:00,41.4,38.6,29.97,WSW,253,1.5,1.5,89,0.00,,,0.21,0,TxWx,2013-01-25 22:38:00,
2013-01-25 17:41:00,41.2,38.4,29.97,WNW,301,0.3,0.0,89,0.00,,,0.21,0,TxWx,2013-01-25 22:41:00,
2013-01-25 17:42:00,41.2,38.4,29.97,WNW,303,0.0,0.0,89,0.00,,,0.21,0,TxWx,2013-01-25 22:42:00,
2013-01-25 17:44:00,41.3,38.6,29.97,WSW,252,3.0,3.0,90,0.00,,,0.21,0,TxWx,2013-01-25 22:44:00,
2013-01-25 17:46:00,41.2,38.4,29.97,West,263,0.3,0.0,89,0.00,,,0.21,0,TxWx,2013-01-25 22:46:00,
2013-01-25 17:47:00,41.2,38.4,29.97,SW,214,1.5,1.5,89,0.00,,,0.21,0,TxWx,2013-01-25 22:47:00,
2013-01-25 17:49:00,41.0,38.3,29.97,West,270,1.9,1.9,90,0.00,,,0.21,0,TxWx,2013-01-25 22:49:00,
2013-01-25 17:51:00,41.2,38.5,29.97,West,276,0.7,1.0,90,0.00,,,0.21,0,TxWx,2013-01-25 22:51:00,
2013-01-25 17:52:00,41.2,38.5,29.97,WSW,247,0.0,0.0,90,0.00,,,0.21,0,TxWx,2013-01-25 22:52:00,
2013-01-25 17:54:00,41.2,38.5,29.97,West,267,4.6,4.6,90,0.00,,,0.21,0,TxWx,2013-01-25 22:54:00,
2013-01-25 17:56:00,41.5,38.8,29.97,WNW,301,1.5,1.5,90,0.00,,,0.21,0,TxWx,2013-01-25 22:56:00,
2013-01-25 17:57:00,41.5,38.8,29.97,SW,214,0.7,0.0,90,0.00,,,0.21,0,TxWx,2013-01-25 22:57:00,
2013-01-25 17:59:00,40.9,38.0,29.97,South,176,0.7,0.0,89,0.00,,,0.21,0,TxWx,2013-01-25 22:59:00,
2013-01-25 18:01:00,40.5,37.9,29.97,SSW,197,0.3,0.0,90,0.00,,,0.21,0,TxWx,2013-01-25 23:01:00,
2013-01-25 18:02:00,40.5,37.9,29.97,SW,233,0.3,0.0,90,0.00,,,0.21,0,TxWx,2013-01-25 23:02:00,
2013-01-25 18:04:00,40.6,38.3,29.97,South,190,1.1,1.1,91,0.00,,,0.21,0,TxWx,2013-01-25 23:04:00,
2013-01-25 18:06:00,40.7,38.4,29.97,WSW,251,1.1,1.1,91,0.00,,,0.21,0,TxWx,2013-01-25 23:06:00,
2013-01-25 18:07:00,40.7,38.4,29.97,WSW,249,0.3,0.0,91,0.00,,,0.21,0,TxWx,2013-01-25 23:07:00,
2013-01-25 18:10:00,40.8,38.5,29.97,SW,218,0.7,0.0,91,0.00,,,0.21,0,TxWx,2013-01-25 23:10:00,
2013-01-25 18:11:00,40.9,38.7,29.97,North,2,3.4,3.4,91,0.00,,,0.21,0,TxWx,2013-01-25 23:11:00,
2013-01-25 18:12:00,40.9,38.7,29.97,North,10,1.5,1.5,91,0.00,,,0.21,0,TxWx,2013-01-25 23:12:00,
2013-01-25 18:13:00,41.1,39.0,29.97,WNW,303,2.3,2.3,91,0.00,,,0.21,0,TxWx,2013-01-25 23:13:00,
2013-01-25 18:15:00,41.0,38.6,29.97,SSW,194,1.1,1.1,91,0.00,,,0.21,0,TxWx,2013-01-25 23:15:00,
2013-01-25 18:16:00,41.2,38.9,29.97,SE,141,1.1,1.1,91,0.00,,,0.21,0,TxWx,2013-01-25 23:16:00,
2013-01-25 18:17:00,41.3,39.0,29.97,NW,304,0.3,0.0,91,0.00,,,0.21,0,TxWx,2013-01-25 23:17:00,
2013-01-25 18:18:00,41.3,38.9,29.97,WNW,289,0.7,1.0,91,0.00,,,0.21,0,TxWx,2013-01-25 23:18:00,
2013-01-25 18:20:00,41.2,38.7,29.97,South,190,0.0,0.0,90,0.00,,,0.21,0,TxWx,2013-01-25 23:20:00,
2013-01-25 18:21:00,41.2,38.7,29.97,SSW,194,0.3,0.0,90,0.00,,,0.21,0,TxWx,2013-01-25 23:21:00,
2013-01-25 18:22:00,41.3,38.8,29.97,ENE,58,1.5,1.5,90,0.00,,,0.21,0,TxWx,2013-01-25 23:22:00,
2013-01-25 18:23:00,41.2,38.8,29.97,SW,231,1.1,1.1,90,0.00,,,0.21,0,TxWx,2013-01-25 23:23:00,
2013-01-25 18:25:00,41.0,38.5,29.97,WNW,303,1.5,2.0,90,0.00,,,0.21,0,TxWx,2013-01-25 23:25:00,
2013-01-25 18:26:00,41.0,38.6,29.97,WSW,253,1.1,1.1,91,0.00,,,0.21,0,TxWx,2013-01-25 23:26:00,
2013-01-25 18:27:00,40.9,38.5,29.97,NW,318,2.6,2.6,91,0.00,,,0.21,0,TxWx,2013-01-25 23:27:00,
2013-01-25 18:28:00,40.7,38.3,29.97,SSW,206,0.0,0.0,91,0.00,,,0.21,0,TxWx,2013-01-25 23:28:00,
2013-01-25 18:30:00,40.8,38.5,29.97,WSW,240,1.5,1.5,91,0.00,,,0.21,0,TxWx,2013-01-25 23:30:00,
2013-01-25 18:32:00,40.6,38.2,29.97,SSW,204,1.5,1.5,91,0.00,,,0.21,0,TxWx,2013-01-25 23:32:00,
2013-01-25 18:34:00,40.5,38.3,29.97,SW,222,1.5,1.5,91,0.00,,,0.21,0,TxWx,2013-01-25 23:34:00,
2013-01-25 18:35:00,40.7,38.6,29.97,NE,54,0.0,0.0,92,0.00,,,0.21,0,TxWx,2013-01-25 23:35:00,
2013-01-25 18:37:00,40.7,38.6,29.97,SW,218,1.1,1.1,92,0.00,,,0.21,0,TxWx,2013-01-25 23:37:00,
2013-01-25 18:39:00,40.9,38.8,29.98,West,279,1.1,1.1,92,0.00,,,0.21,0,TxWx,2013-01-25 23:39:00,
2013-01-25 18:40:00,41.1,38.9,29.98,South,177,1.1,1.1,91,0.00,,,0.21,0,TxWx,2013-01-25 23:40:00,
2013-01-25 18:42:00,41.3,39.0,29.98,WNW,303,0.3,0.0,91,0.00,,,0.21,0,TxWx,2013-01-25 23:42:00,
2013-01-25 18:44:00,41.3,39.0,29.98,SSW,203,0.0,0.0,91,0.00,,,0.21,0,TxWx,2013-01-25 23:44:00,
2013-01-25 18:46:00,41.3,38.9,29.98,SSW,197,0.3,0.0,91,0.00,,,0.21,0,TxWx,2013-01-25 23:46:00,
2013-01-25 18:47:00,41.4,39.0,29.98,SW,224,1.5,1.5,90,0.00,,,0.21,0,TxWx,2013-01-25 23:47:00,
2013-01-25 18:49:00,41.2,38.6,29.98,NW,305,1.5,1.5,90,0.00,,,0.21,0,TxWx,2013-01-25 23:49:00,
2013-01-25 18:51:00,40.5,37.7,29.98,SW,224,3.0,3.0,89,0.00,,,0.21,0,TxWx,2013-01-25 23:51:00,
2013-01-25 18:52:00,40.7,38.4,29.98,South,176,3.8,3.8,91,0.00,,,0.21,0,TxWx,2013-01-25 23:52:00,
2013-01-25 18:53:00,40.7,38.4,29.98,SE,138,2.6,3.0,91,0.00,,,0.21,0,TxWx,2013-01-25 23:53:00,
2013-01-25 18:54:00,41.4,39.1,29.98,SSW,202,2.3,3.0,91,0.00,,,0.21,0,TxWx,2013-01-25 23:54:00,
2013-01-25 18:56:00,41.8,39.2,29.98,SSW,210,1.9,1.9,90,0.00,,,0.21,0,TxWx,2013-01-25 23:56:00,
2013-01-25 18:57:00,41.5,38.6,29.98,West,271,3.8,3.8,89,0.00,,,0.21,0,TxWx,2013-01-25 23:57:00,
2013-01-25 18:58:00,41.2,38.3,29.98,SSE,163,3.8,3.8,89,0.00,,,0.21,0,TxWx,2013-01-25 23:58:00,
2013-01-25 18:59:00,41.2,38.2,29.98,WSW,251,2.3,2.3,89,0.00,,,0.21,0,TxWx,2013-01-25 23:59:00,
2013-01-25 19:01:00,41.3,38.5,29.98,SW,226,2.6,2.6,89,0.00,,,0.21,0,TxWx,2013-01-26 00:01:00,
2013-01-25 19:02:00,41.2,38.4,29.98,SW,217,1.9,1.9,89,0.00,,,0.21,0,TxWx,2013-01-26 00:02:00,
2013-01-25 19:03:00,41.2,38.5,29.98,West,261,1.5,1.5,90,0.00,,,0.21,0,TxWx,2013-01-26 00:03:00,
2013-01-25 19:04:00,41.5,38.9,29.98,WSW,244,2.3,2.3,90,0.00,,,0.21,0,TxWx,2013-01-26 00:04:00,
2013-01-25 19:06:00,41.4,38.7,29.98,WSW,246,1.9,1.9,90,0.00,,,0.21,0,TxWx,2013-01-26 00:06:00,
2013-01-25 19:07:00,41.6,38.9,29.98,WSW,238,2.6,2.6,90,0.00,,,0.21,0,TxWx,2013-01-26 00:07:00,
2013-01-25 19:08:00,41.3,38.4,29.98,WSW,243,3.0,4.0,89,0.00,,,0.21,0,TxWx,2013-01-26 00:08:00,
2013-01-25 19:09:00,41.0,38.2,29.98,SSW,200,3.4,3.4,89,0.00,,,0.21,0,TxWx,2013-01-26 00:09:00,
2013-01-25 19:11:00,40.9,38.2,29.98,SW,231,3.4,3.4,90,0.00,,,0.21,0,TxWx,2013-01-26 00:11:00,
2013-01-25 19:13:00,41.1,38.6,29.98,WSW,254,2.6,2.6,90,0.00,,,0.21,0,TxWx,2013-01-26 00:13:00,
2013-01-25 19:14:00,41.2,38.6,29.98,West,273,2.3,2.3,90,0.00,,,0.21,0,TxWx,2013-01-26 00:14:00,
2013-01-25 19:17:00,41.3,38.7,29.98,West,259,2.6,2.6,90,0.00,,,0.21,0,TxWx,2013-01-26 00:17:00,
2013-01-25 19:18:00,41.0,38.3,29.98,WNW,302,2.3,3.0,90,0.00,,,0.21,0,TxWx,2013-01-26 00:18:00,
2013-01-25 19:19:00,41.0,38.3,29.98,SSW,193,3.8,4.0,90,0.00,,,0.21,0,TxWx,2013-01-26 00:19:00,
2013-01-25 19:22:00,41.1,38.7,29.98,West,263,4.2,5.0,91,0.00,,,0.21,0,TxWx,2013-01-26 00:22:00,
2013-01-25 19:23:00,41.4,38.9,29.98,West,278,3.4,3.4,91,0.00,,,0.21,0,TxWx,2013-01-26 00:23:00,
2013-01-25 19:24:00,41.4,38.9,29.98,WNW,292,2.6,2.6,91,0.00,,,0.21,0,TxWx,2013-01-26 00:24:00,
2013-01-25 19:27:00,41.2,38.7,29.98,West,265,1.5,1.5,90,0.00,,,0.21,0,TxWx,2013-01-26 00:27:00,
2013-01-25 19:28:00,41.7,39.2,29.98,WSW,253,2.3,3.0,90,0.00,,,0.21,0,TxWx,2013-01-26 00:28:00,
2013-01-25 19:29:00,41.7,39.2,29.98,WNW,284,4.2,4.2,90,0.00,,,0.21,0,TxWx,2013-01-26 00:29:00,
2013-01-25 19:30:00,41.7,39.1,29.98,WNW,302,2.3,2.3,90,0.00,,,0.21,0,TxWx,2013-01-26 00:30:00,
2013-01-25 19:32:00,41.8,39.3,29.98,WNW,302,6.0,6.0,90,0.00,,,0.21,0,TxWx,2013-01-26 00:32:00,
2013-01-25 19:33:00,42.2,39.5,29.98,WNW,302,4.9,4.9,90,0.00,,,0.21,0,TxWx,2013-01-26 00:33:00,
2013-01-25 19:34:00,42.2,39.5,29.98,West,272,5.3,5.3,90,0.00,,,0.21,0,TxWx,2013-01-26 00:34:00,
2013-01-25 19:35:00,42.0,39.2,29.98,West,260,1.9,1.9,89,0.00,,,0.21,0,TxWx,2013-01-26 00:35:00,
2013-01-25 19:37:00,41.9,39.0,29.98,NW,325,3.0,3.0,89,0.00,,,0.21,0,TxWx,2013-01-26 00:37:00,
2013-01-25 19:38:00,42.1,39.3,29.98,NE,53,1.5,1.5,89,0.00,,,0.21,0,TxWx,2013-01-26 00:38:00,
2013-01-25 19:39:00,42.2,39.4,29.98,WNW,293,4.2,4.2,89,0.00,,,0.21,0,TxWx,2013-01-26 00:39:00,
2013-01-25 19:40:00,42.2,39.4,29.98,WNW,303,2.3,2.3,89,0.00,,,0.21,0,TxWx,2013-01-26 00:40:00,
2013-01-25 19:42:00,42.2,39.3,29.97,West,277,4.9,5.0,89,0.00,,,0.21,0,TxWx,2013-01-26 00:42:00,
2013-01-25 19:43:00,42.2,39.3,29.97,WSW,258,3.4,4.0,89,0.00,,,0.21,0,TxWx,2013-01-26 00:43:00,
2013-01-25 19:44:00,42.3,39.4,29.97,West,265,3.0,4.0,89,0.00,,,0.21,0,TxWx,2013-01-26 00:44:00,
2013-01-25 19:45:00,42.3,39.5,29.97,WSW,250,3.0,3.0,89,0.00,,,0.21,0,TxWx,2013-01-26 00:45:00,
2013-01-25 19:47:00,42.3,39.4,29.97,West,281,5.7,6.0,89,0.00,,,0.21,0,TxWx,2013-01-26 00:47:00,
2013-01-25 19:48:00,42.3,39.4,29.97,WNW,291,2.6,3.0,89,0.00,,,0.21,0,TxWx,2013-01-26 00:48:00,
2013-01-25 19:49:00,42.4,39.5,29.97,WNW,303,4.6,6.0,89,0.00,,,0.21,0,TxWx,2013-01-26 00:49:00,
2013-01-25 19:50:00,42.6,39.6,29.97,WSW,250,3.8,4.0,89,0.00,,,0.21,0,TxWx,2013-01-26 00:50:00,
2013-01-25 19:53:00,42.7,39.7,29.97,WNW,301,3.0,3.0,88,0.00,,,0.22,0,TxWx,2013-01-26 00:53:00,
2013-01-25 19:54:00,42.5,39.4,29.97,WNW,285,4.2,4.2,88,0.01,,,0.22,0,TxWx,2013-01-26 00:54:00,
2013-01-25 19:56:00,42.2,39.1,29.97,WNW,302,4.6,4.6,88,0.01,,,0.22,0,TxWx,2013-01-26 00:56:00,
2013-01-25 19:58:00,42.5,39.5,29.97,West,263,3.0,3.0,89,0.01,,,0.22,0,TxWx,2013-01-26 00:58:00,
2013-01-25 19:59:00,42.5,39.6,29.97,West,259,3.4,3.4,89,0.01,,,0.22,0,TxWx,2013-01-26 00:59:00,
2013-01-25 20:01:00,42.3,39.4,29.98,West,259,3.0,3.0,89,0.01,,,0.22,0,TxWx,2013-01-26 01:01:00,
2013-01-25 20:03:00,42.4,39.6,29.98,WNW,303,4.6,5.0,89,0.01,,,0.22,0,TxWx,2013-01-26 01:03:00,
2013-01-25 20:04:00,42.4,39.6,29.98,WNW,303,4.6,5.0,89,0.01,,,0.22,0,TxWx,2013-01-26 01:04:00,
2013-01-25 20:06:00,42.5,39.7,29.98,West,279,6.0,6.0,89,0.01,,,0.22,0,TxWx,2013-01-26 01:06:00,
2013-01-25 20:08:00,42.3,39.5,29.98,North,0,2.6,5.0,89,0.01,,,0.22,0,TxWx,2013-01-26 01:08:00,
2013-01-25 20:09:00,42.3,39.5,29.98,WNW,303,2.6,3.0,89,0.01,,,0.22,0,TxWx,2013-01-26 01:09:00,
2013-01-25 20:11:00,42.2,39.5,29.98,West,262,4.6,4.6,90,0.01,,,0.22,0,TxWx,2013-01-26 01:11:00,
2013-01-25 20:13:00,42.4,39.7,29.98,WNW,303,5.7,7.0,90,0.01,,,0.22,0,TxWx,2013-01-26 01:13:00,
2013-01-25 20:14:00,42.5,39.9,29.98,West,265,6.4,6.4,90,0.01,,,0.22,0,TxWx,2013-01-26 01:14:00,
2013-01-25 20:16:00,42.4,39.6,29.98,WNW,300,2.6,2.6,89,0.01,,,0.22,0,TxWx,2013-01-26 01:16:00,
2013-01-25 20:18:00,42.5,39.7,29.98,South,185,1.9,2.0,89,0.01,,,0.22,0,TxWx,2013-01-26 01:18:00,
2013-01-25 20:20:00,42.6,39.8,29.98,WNW,292,5.3,6.0,89,0.01,,,0.22,0,TxWx,2013-01-26 01:20:00,
2013-01-25 20:21:00,42.7,39.9,29.98,WSW,248,4.6,4.6,89,0.01,,,0.22,0,TxWx,2013-01-26 01:21:00,
2013-01-25 20:23:00,42.7,39.9,29.99,NNW,334,2.6,2.6,89,0.01,,,0.22,0,TxWx,2013-01-26 01:23:00,
2013-01-25 20:25:00,42.7,39.9,29.99,NW,317,4.9,7.0,89,0.01,,,0.22,0,TxWx,2013-01-26 01:25:00,
2013-01-25 20:26:00,42.8,39.9,29.98,NW,310,4.6,4.6,89,0.01,,,0.22,0,TxWx,2013-01-26 01:26:00,
2013-01-25 20:29:00,42.6,39.7,29.98,West,278,2.6,3.0,89,0.01,,,0.22,0,TxWx,2013-01-26 01:29:00,
2013-01-25 20:30:00,42.7,39.7,29.98,SE,124,3.4,3.4,89,0.01,,,0.22,0,TxWx,2013-01-26 01:30:00,
2013-01-25 20:31:00,42.5,39.6,29.98,WSW,257,1.9,1.9,89,0.01,,,0.22,0,TxWx,2013-01-26 01:31:00,
2013-01-25 20:35:00,42.6,39.7,29.98,NW,304,4.6,4.6,89,0.01,,,0.22,0,TxWx,2013-01-26 01:35:00,
2013-01-25 20:36:00,42.7,39.9,29.98,NW,305,2.3,3.0,89,0.01,,,0.22,0,TxWx,2013-01-26 01:36:00,
2013-01-25 20:40:00,43.0,39.8,29.98,WNW,295,5.7,5.7,88,0.01,,,0.22,0,TxWx,2013-01-26 01:40:00,
2013-01-25 20:41:00,43.0,39.8,29.98,WNW,302,7.6,7.6,88,0.01,,,0.22,0,TxWx,2013-01-26 01:41:00,
2013-01-25 20:45:00,43.0,39.7,29.98,NNE,16,3.8,4.0,88,0.01,,,0.22,0,TxWx,2013-01-26 01:45:00,
2013-01-25 20:46:00,43.1,39.7,29.98,WNW,290,4.6,5.0,87,0.01,,,0.22,0,TxWx,2013-01-26 01:46:00,
2013-01-25 20:50:00,43.2,39.7,29.98,West,271,3.8,4.0,87,0.01,,,0.22,0,TxWx,2013-01-26 01:50:00,
2013-01-25 20:51:00,43.2,39.7,29.98,West,268,3.0,3.0,87,0.01,,,0.22,0,TxWx,2013-01-26 01:51:00,
2013-01-25 20:52:00,43.1,39.6,29.98,West,276,4.6,4.6,87,0.01,,,0.22,0,TxWx,2013-01-26 01:52:00,
2013-01-25 20:55:00,43.0,39.6,29.98,WSW,258,4.9,4.9,87,0.00,,,0.22,0,TxWx,2013-01-26 01:55:00,
2013-01-25 20:56:00,43.1,39.6,29.98,West,278,4.2,4.2,87,0.00,,,0.22,0,TxWx,2013-01-26 01:56:00,
2013-01-25 20:57:00,43.1,39.6,29.98,WNW,303,4.9,4.9,87,0.00,,,0.22,0,TxWx,2013-01-26 01:57:00,
2013-01-25 21:00:00,43.0,39.7,29.98,WNW,302,5.7,5.7,88,0.00,,,0.22,0,TxWx,2013-01-26 02:00:00,
2013-01-25 21:01:00,43.0,39.7,29.98,WNW,302,7.2,7.2,87,0.00,,,0.22,0,TxWx,2013-01-26 02:01:00,
2013-01-25 21:02:00,43.0,39.7,29.98,West,279,6.0,6.0,87,0.00,,,0.22,0,TxWx,2013-01-26 02:02:00,
2013-01-25 21:05:00,43.1,39.6,29.99,WNW,297,1.9,2.0,87,0.00,,,0.22,0,TxWx,2013-01-26 02:05:00,
2013-01-25 21:06:00,43.0,39.6,29.99,West,276,4.2,4.2,87,0.00,,,0.22,0,TxWx,2013-01-26 02:06:00,
2013-01-25 21:07:00,43.2,39.8,29.99,WSW,251,4.9,4.9,87,0.00,,,0.22,0,TxWx,2013-01-26 02:07:00,
2013-01-25 21:10:00,43.1,39.5,29.98,WNW,302,7.2,7.2,87,0.00,,,0.22,0,TxWx,2013-01-26 02:10:00,
2013-01-25 21:11:00,43.1,39.6,29.98,West,267,5.3,6.0,87,0.00,,,0.22,0,TxWx,2013-01-26 02:11:00,
2013-01-25 21:12:00,43.1,39.6,29.98,WNW,301,4.6,4.6,87,0.00,,,0.22,0,TxWx,2013-01-26 02:12:00,
2013-01-25 21:16:00,43.2,39.5,29.98,WNW,284,3.4,3.4,86,0.00,,,0.22,0,TxWx,2013-01-26 02:16:00,
2013-01-25 21:17:00,43.0,39.4,29.98,NW,323,1.9,2.0,87,0.00,,,0.22,0,TxWx,2013-01-26 02:17:00,
2013-01-25 21:21:00,43.2,39.6,29.98,NW,313,3.8,4.0,86,0.00,,,0.22,0,TxWx,2013-01-26 02:21:00,
2013-01-25 21:22:00,43.1,39.5,29.98,WNW,302,4.9,5.0,86,0.00,,,0.22,0,TxWx,2013-01-26 02:22:00,
2013-01-25 21:26:00,43.4,39.6,29.99,WNW,303,4.9,5.0,86,0.00,,,0.22,0,TxWx,2013-01-26 02:26:00,
2013-01-25 21:27:00,43.4,39.5,29.99,NE,35,1.9,2.0,86,0.00,,,0.22,0,TxWx,2013-01-26 02:27:00,
2013-01-25 21:31:00,43.5,39.5,29.99,WNW,292,3.8,3.8,85,0.00,,,0.22,0,TxWx,2013-01-26 02:31:00,
2013-01-25 21:32:00,43.3,39.4,29.99,WNW,297,5.7,6.0,85,0.00,,,0.22,0,TxWx,2013-01-26 02:32:00,
2013-01-25 21:36:00,43.4,39.4,29.99,WNW,295,6.0,6.0,85,0.00,,,0.22,0,TxWx,2013-01-26 02:36:00,
2013-01-25 21:37:00,43.4,39.4,29.99,WNW,286,3.8,3.8,85,0.00,,,0.22,0,TxWx,2013-01-26 02:37:00,
2013-01-25 21:41:00,43.4,39.4,29.99,SW,229,2.3,2.3,85,0.00,,,0.22,0,TxWx,2013-01-26 02:41:00,
2013-01-25 21:42:00,43.4,39.4,29.99,NW,304,3.8,3.8,85,0.00,,,0.22,0,TxWx,2013-01-26 02:42:00,
2013-01-25 21:43:00,43.3,39.4,29.99,NW,306,2.6,2.6,85,0.00,,,0.22,0,TxWx,2013-01-26 02:43:00,
2013-01-25 21:46:00,43.4,39.4,29.99,West,280,3.8,3.8,85,0.00,,,0.22,0,TxWx,2013-01-26 02:46:00,
2013-01-25 21:47:00,43.4,39.4,29.99,WSW,246,3.8,3.8,85,0.00,,,0.22,0,TxWx,2013-01-26 02:47:00,
2013-01-25 21:48:00,43.2,39.2,29.99,West,268,3.0,3.0,85,0.00,,,0.22,0,TxWx,2013-01-26 02:48:00,
2013-01-25 21:51:00,43.2,39.3,29.99,WNW,283,2.3,2.3,85,0.00,,,0.22,0,TxWx,2013-01-26 02:51:00,
2013-01-25 21:52:00,43.0,39.1,29.99,West,280,4.6,5.0,86,0.00,,,0.22,0,TxWx,2013-01-26 02:52:00,
2013-01-25 21:53:00,43.3,39.4,29.99,West,270,3.0,3.0,86,0.00,,,0.22,0,TxWx,2013-01-26 02:53:00,
2013-01-25 21:56:00,42.9,39.2,29.99,WNW,290,1.9,1.9,86,0.00,,,0.22,0,TxWx,2013-01-26 02:56:00,
2013-01-25 21:57:00,42.9,39.1,29.99,West,276,3.8,3.8,86,0.00,,,0.22,0,TxWx,2013-01-26 02:57:00,
2013-01-25 21:58:00,42.9,39.1,29.99,West,266,3.4,4.0,86,0.00,,,0.22,0,TxWx,2013-01-26 02:58:00,
2013-01-25 22:01:00,42.8,39.2,30.00,WNW,282,2.3,3.0,86,0.00,,,0.22,0,TxWx,2013-01-26 03:01:00,
2013-01-25 22:02:00,42.8,39.1,30.00,WNW,282,3.4,3.4,86,0.00,,,0.22,0,TxWx,2013-01-26 03:02:00,
2013-01-25 22:03:00,42.8,39.1,30.00,WNW,288,2.6,3.0,86,0.00,,,0.22,0,TxWx,2013-01-26 03:03:00,
2013-01-25 22:06:00,42.4,38.9,30.00,WSW,247,6.0,6.0,87,0.00,,,0.22,0,TxWx,2013-01-26 03:06:00,
2013-01-25 22:07:00,42.6,39.0,30.00,WSW,251,4.2,4.2,87,0.00,,,0.22,0,TxWx,2013-01-26 03:07:00,
2013-01-25 22:08:00,42.6,39.0,30.00,WNW,302,3.8,4.0,87,0.00,,,0.22,0,TxWx,2013-01-26 03:08:00,
2013-01-25 22:11:00,42.3,38.6,30.00,WSW,246,1.1,1.1,86,0.00,,,0.22,0,TxWx,2013-01-26 03:11:00,
2013-01-25 22:12:00,42.1,38.4,30.00,West,278,3.0,3.0,86,0.00,,,0.22,0,TxWx,2013-01-26 03:12:00,
2013-01-25 22:13:00,41.9,38.3,30.00,WNW,297,2.3,2.3,87,0.00,,,0.22,0,TxWx,2013-01-26 03:13:00,
2013-01-25 22:16:00,41.5,38.2,30.00,SW,223,1.5,1.5,87,0.00,,,0.22,0,TxWx,2013-01-26 03:16:00,
2013-01-25 22:17:00,41.5,38.2,30.00,SSW,207,2.6,2.6,88,0.00,,,0.22,0,TxWx,2013-01-26 03:17:00,
2013-01-25 22:18:00,41.5,38.3,30.00,West,260,1.9,2.0,88,0.00,,,0.22,0,TxWx,2013-01-26 03:18:00,
2013-01-25 22:19:00,41.5,38.3,30.00,WSW,243,1.1,1.1,88,0.00,,,0.22,0,TxWx,2013-01-26 03:19:00,
2013-01-25 22:21:00,41.0,37.8,30.00,WNW,303,1.5,1.5,88,0.00,,,0.22,0,TxWx,2013-01-26 03:21:00,
2013-01-25 22:23:00,40.8,37.6,29.99,WNW,302,1.9,1.9,88,0.00,,,0.22,0,TxWx,2013-01-26 03:23:00,
2013-01-25 22:24:00,40.7,37.6,29.99,WSW,245,0.7,1.0,88,0.00,,,0.22,0,TxWx,2013-01-26 03:24:00,
2013-01-25 22:26:00,40.7,37.7,29.99,SW,222,1.5,1.5,89,0.00,,,0.22,0,TxWx,2013-01-26 03:26:00,
2013-01-25 22:28:00,40.6,37.8,30.00,West,264,0.7,1.0,89,0.00,,,0.22,0,TxWx,2013-01-26 03:28:00,
2013-01-25 22:29:00,40.6,37.7,30.00,WSW,240,0.7,1.0,89,0.00,,,0.22,0,TxWx,2013-01-26 03:29:00,
2013-01-25 22:32:00,40.3,37.5,30.00,SW,232,1.1,1.1,89,0.00,,,0.22,0,TxWx,2013-01-26 03:32:00,
2013-01-25 22:33:00,40.2,37.4,30.00,WNW,298,0.7,0.0,89,0.00,,,0.22,0,TxWx,2013-01-26 03:33:00,
2013-01-25 22:34:00,39.9,37.1,30.00,SSW,193,1.9,1.9,89,0.00,,,0.22,0,TxWx,2013-01-26 03:34:00,
2013-01-25 22:37:00,39.9,37.5,30.00,SSW,199,0.7,0.0,91,0.00,,,0.22,0,TxWx,2013-01-26 03:37:00,
2013-01-25 22:38:00,39.7,37.3,30.00,South,184,2.3,2.3,91,0.00,,,0.22,0,TxWx,2013-01-26 03:38:00,
2013-01-25 22:39:00,39.7,37.3,30.00,SSE,163,1.1,1.1,91,0.00,,,0.22,0,TxWx,2013-01-26 03:39:00,
2013-01-25 22:42:00,39.7,37.4,30.00,South,176,1.9,1.9,91,0.00,,,0.22,0,TxWx,2013-01-26 03:42:00,
2013-01-25 22:43:00,39.8,37.5,30.00,SSW,196,1.1,1.1,91,0.00,,,0.22,0,TxWx,2013-01-26 03:43:00,
2013-01-25 22:44:00,39.8,37.5,30.00,SSW,206,0.3,0.0,91,0.00,,,0.22,0,TxWx,2013-01-26 03:44:00,
2013-01-25 22:45:00,39.8,37.5,30.00,South,173,1.9,1.9,91,0.00,,,0.22,0,TxWx,2013-01-26 03:45:00,
2013-01-25 22:47:00,39.6,37.3,30.00,SSW,205,1.9,2.0,91,0.00,,,0.22,0,TxWx,2013-01-26 03:47:00,
2013-01-25 22:48:00,39.5,37.3,30.00,SSW,199,2.6,2.6,91,0.00,,,0.22,0,TxWx,2013-01-26 03:48:00,
2013-01-25 22:49:00,39.5,37.3,30.00,SSW,207,2.6,2.6,91,0.00,,,0.22,0,TxWx,2013-01-26 03:49:00,
2013-01-25 22:50:00,39.4,37.1,30.00,SSW,210,1.9,1.9,91,0.00,,,0.22,0,TxWx,2013-01-26 03:50:00,
2013-01-25 22:52:00,39.1,36.9,30.00,South,175,1.1,1.1,91,0.00,,,0.22,0,TxWx,2013-01-26 03:52:00,
2013-01-25 22:53:00,39.1,36.9,30.00,South,191,0.7,1.0,92,0.00,,,0.22,0,TxWx,2013-01-26 03:53:00,
2013-01-25 22:54:00,39.0,36.9,30.00,South,178,1.1,1.1,92,0.00,,,0.22,0,TxWx,2013-01-26 03:54:00,
2013-01-25 22:55:00,39.0,36.9,30.00,SW,234,1.5,1.5,92,0.00,,,0.22,0,TxWx,2013-01-26 03:55:00,
2013-01-25 22:57:00,38.8,36.8,30.00,SSW,202,1.1,1.1,92,0.00,,,0.22,0,TxWx,2013-01-26 03:57:00,
2013-01-25 22:58:00,38.7,36.8,30.00,SSW,197,1.5,1.5,92,0.00,,,0.22,0,TxWx,2013-01-26 03:58:00,
2013-01-25 22:59:00,38.7,36.9,30.00,SSE,155,1.5,1.5,93,0.00,,,0.22,0,TxWx,2013-01-26 03:59:00,
2013-01-25 23:00:00,38.6,36.9,30.00,SE,146,1.1,1.1,93,0.00,,,0.22,0,TxWx,2013-01-26 04:00:00,
2013-01-25 23:02:00,38.5,36.8,30.00,South,180,1.5,1.5,93,0.00,,,0.22,0,TxWx,2013-01-26 04:02:00,
2013-01-25 23:04:00,38.2,36.4,30.00,South,184,1.1,1.1,93,0.00,,,0.22,0,TxWx,2013-01-26 04:04:00,
2013-01-25 23:05:00,37.9,36.2,30.00,SW,220,1.1,1.1,93,0.00,,,0.22,0,TxWx,2013-01-26 04:05:00,
2013-01-25 23:08:00,37.8,36.3,30.00,South,173,1.1,1.1,94,0.00,,,0.22,0,TxWx,2013-01-26 04:08:00,
2013-01-25 23:09:00,37.8,36.3,30.00,SSE,153,1.9,2.0,94,0.00,,,0.22,0,TxWx,2013-01-26 04:09:00,
2013-01-25 23:10:00,37.8,36.5,30.00,SSW,213,1.9,1.9,95,0.00,,,0.22,0,TxWx,2013-01-26 04:10:00,
2013-01-25 23:13:00,37.6,36.3,30.00,SSW,209,0.0,0.0,95,0.00,,,0.22,0,TxWx,2013-01-26 04:13:00,
2013-01-25 23:14:00,37.5,36.2,30.00,SW,216,1.5,1.5,95,0.00,,,0.22,0,TxWx,2013-01-26 04:14:00,
2013-01-25 23:15:00,37.4,36.1,30.00,South,185,0.0,0.0,95,0.00,,,0.22,0,TxWx,2013-01-26 04:15:00,
2013-01-25 23:18:00,37.4,36.3,30.00,WSW,241,0.3,0.0,95,0.00,,,0.22,0,TxWx,2013-01-26 04:18:00,
2013-01-25 23:19:00,37.3,36.3,30.00,WSW,241,1.1,1.1,95,0.00,,,0.22,0,TxWx,2013-01-26 04:19:00,
2013-01-25 23:21:00,37.1,36.0,30.00,SSE,154,3.0,3.0,95,0.00,,,0.22,0,TxWx,2013-01-26 04:21:00,
2013-01-25 23:23:00,37.1,36.2,30.00,SSW,199,1.1,1.1,96,0.00,,,0.22,0,TxWx,2013-01-26 04:23:00,
2013-01-25 23:24:00,37.1,36.1,30.00,South,189,0.7,1.0,96,0.00,,,0.22,0,TxWx,2013-01-26 04:24:00,
2013-01-25 23:26:00,36.9,35.9,30.00,WSW,258,1.1,1.1,96,0.00,,,0.22,0,TxWx,2013-01-26 04:26:00,
2013-01-25 23:28:00,36.8,35.9,30.00,SSW,192,1.1,1.1,96,0.00,,,0.22,0,TxWx,2013-01-26 04:28:00,
2013-01-25 23:29:00,36.7,35.8,30.00,SSW,197,2.3,2.3,96,0.00,,,0.22,0,TxWx,2013-01-26 04:29:00,
2013-01-25 23:31:00,36.3,35.3,30.00,South,179,1.1,1.1,96,0.00,,,0.22,0,TxWx,2013-01-26 04:31:00,
2013-01-25 23:33:00,36.2,35.4,30.01,SW,214,1.9,2.0,96,0.00,,,0.22,0,TxWx,2013-01-26 04:33:00,
2013-01-25 23:35:00,36.3,35.6,30.01,South,185,3.4,3.4,97,0.00,,,0.22,0,TxWx,2013-01-26 04:35:00,
2013-01-25 23:36:00,36.3,35.7,30.01,SSW,209,2.3,2.3,97,0.00,,,0.22,0,TxWx,2013-01-26 04:36:00,
2013-01-25 23:38:00,36.3,35.8,30.01,SSW,208,1.5,1.5,97,0.00,,,0.22,0,TxWx,2013-01-26 04:38:00,
2013-01-25 23:40:00,36.2,35.5,30.01,SW,221,1.9,2.0,97,0.00,,,0.22,0,TxWx,2013-01-26 04:40:00,
2013-01-25 23:41:00,36.2,35.7,30.01,South,191,0.7,0.0,97,0.00,,,0.22,0,TxWx,2013-01-26 04:41:00,
2013-01-25 23:43:00,36.4,35.9,30.01,SSW,205,1.9,1.9,98,0.00,,,0.22,0,TxWx,2013-01-26 04:43:00,
2013-01-25 23:45:00,36.4,35.8,30.01,SSW,210,1.1,1.1,98,0.00,,,0.22,0,TxWx,2013-01-26 04:45:00,
2013-01-25 23:46:00,36.1,35.5,30.01,SW,217,1.1,1.1,97,0.00,,,0.22,0,TxWx,2013-01-26 04:46:00,
2013-01-25 23:49:00,36.2,35.7,30.01,SSW,209,1.9,1.9,98,0.00,,,0.22,0,TxWx,2013-01-26 04:49:00,
2013-01-25 23:50:00,36.2,35.8,30.01,SSW,210,1.1,1.1,98,0.00,,,0.22,0,TxWx,2013-01-26 04:50:00,
2013-01-25 23:52:00,36.3,35.8,30.01,SSW,209,1.9,1.9,98,0.00,,,0.22,0,TxWx,2013-01-26 04:52:00,
2013-01-25 23:54:00,36.2,35.8,30.01,SW,218,1.5,1.5,98,0.00,,,0.22,0,TxWx,2013-01-26 04:54:00,
2013-01-25 23:55:00,36.1,35.6,30.01,SSW,210,1.5,1.5,98,0.00,,,0.22,0,TxWx,2013-01-26 04:55:00,
2013-01-25 23:56:00,36.1,35.6,30.01,SW,235,0.7,0.0,98,0.00,,,0.22,0,TxWx,2013-01-26 04:56:00,
2013-01-25 23:58:00,36.1,35.7,30.01,WSW,237,1.5,1.5,98,0.00,,,0.22,0,TxWx,2013-01-26 04:58:00,
2013-01-25 23:59:00,36.0,35.5,30.01,South,186,1.5,1.5,98,0.00,,,0.22,0,TxWx,2013-01-26 04:59:00,